GFSGBSN_sfc_thetae_072.txt.gz
Theta_e
315 315 315 316 316 319 322 323 323 323 321 320 320 320 321 322 321 321 321 320 320 320 320 320 321 322 315 305 304 309 320 318 307 306 302 299 296 294 293 293 293 290 291 294 295 295 294
313 314 315 315 315 319 321 322 322 322 321 320 319 319 320 320 320 320 320 320 319 319 319 319 321 321 308 295 308 308 307 307 305 303 299 299 298 296 294 292 292 292 292 293 293 293 293
312 312 314 315 314 319 320 321 321 322 320 319 319 319 319 319 319 319 319 319 319 319 319 319 320 315 303 298 308 306 306 304 305 302 300 300 298 296 295 292 295 292 289 289 290 292 292
310 312 312 314 313 314 319 321 321 321 320 319 319 318 318 319 318 318 318 319 319 320 320 320 321 308 296 308 307 305 305 303 304 304 302 301 301 298 294 295 292 289 286 283 286 291 291
309 311 311 313 314 313 317 320 320 320 319 318 318 317 318 318 318 318 318 319 319 319 320 320 308 299 293 312 302 304 303 302 302 301 302 303 299 294 293 288 285 285 280 281 283 290 290
307 308 310 311 313 314 314 317 319 319 318 317 317 317 318 318 317 318 318 319 319 316 314 312 304 293 300 300 304 303 302 303 300 300 298 297 292 290 287 285 280 281 281 281 282 286 289
306 306 308 310 311 313 314 315 318 318 318 317 317 317 317 318 318 319 315 305 297 296 299 293 294 294 299 304 304 301 302 300 297 295 289 291 287 285 288 286 284 284 282 282 286 288 287
304 304 306 306 308 309 311 312 314 317 317 318 317 318 318 319 319 319 309 295 295 298 292 298 297 300 304 304 297 298 302 295 293 288 289 288 284 288 290 288 288 285 284 283 286 288 288
301 302 303 303 304 307 308 308 310 311 312 313 314 316 319 319 319 314 308 306 309 304 291 294 297 299 301 302 296 297 299 294 290 289 287 285 287 290 289 286 287 284 283 283 283 285 284
300 301 301 300 302 304 306 307 307 306 307 308 310 312 313 319 314 311 308 312 312 307 287 289 293 295 301 300 295 300 299 296 290 288 287 287 289 289 287 285 286 283 287 286 286 283 280
301 301 300 299 301 303 304 306 306 305 305 306 306 308 311 316 310 310 311 314 311 300 278 291 292 301 299 295 295 296 298 295 289 289 288 286 288 288 287 287 288 285 288 287 284 282 281
304 302 300 299 299 301 303 306 305 306 304 305 305 306 309 312 313 311 313 312 306 287 276 288 293 292 292 293 293 295 295 296 294 290 289 288 291 289 288 289 288 290 286 285 283 281 276
306 305 302 300 299 299 302 305 306 306 305 304 305 305 307 308 308 310 312 305 287 277 289 287 287 290 289 289 291 291 291 289 287 283 283 285 287 290 291 288 289 285 282 277 275 275 275
306 306 305 303 300 300 300 301 303 304 306 304 304 304 304 307 308 310 307 294 277 283 286 291 290 289 287 290 289 289 288 287 289 286 283 282 281 288 291 289 287 284 283 278 273 272 275
304 305 306 305 303 301 301 301 300 302 304 304 303 300 300 305 308 310 302 287 283 285 291 289 288 285 284 287 289 288 287 288 289 288 284 282 281 288 289 289 291 285 281 284 277 267 273
303 304 305 305 305 303 302 300 300 300 303 303 296 296 296 305 309 305 297 288 289 294 293 290 285 287 283 284 285 285 286 288 288 290 289 287 281 286 287 289 289 286 288 281 278 269 269
302 302 304 305 305 305 304 301 301 299 303 301 293 288 297 306 307 296 289 290 291 295 296 291 288 286 285 285 286 285 286 287 290 289 289 287 286 283 287 285 284 285 283 283 282 279 273
300 301 303 303 304 305 305 303 301 300 302 297 289 281 296 304 290 286 286 290 295 294 296 295 293 290 287 287 285 285 285 287 291 291 287 288 286 281 283 286 286 285 284 283 278 276 276
300 301 301 302 304 305 305 305 302 300 301 292 286 285 296 300 285 285 290 292 294 294 294 294 293 294 292 288 285 286 287 291 291 291 289 289 283 275 280 284 284 282 284 283 283 282 277
299 300 300 301 303 304 304 305 304 302 302 292 284 281 287 292 292 289 289 290 290 296 296 297 295 295 293 291 293 287 288 291 293 291 296 293 284 281 279 280 284 282 284 284 285 279 280
297 298 299 300 301 303 303 305 305 303 303 293 283 281 284 281 285 288 292 291 289 289 295 296 292 294 293 289 290 289 291 291 293 295 293 290 282 284 285 285 285 284 284 283 283 285 282
297 297 298 299 300 302 303 303 304 303 303 290 281 280 283 282 283 287 288 288 288 290 291 289 289 293 293 291 291 289 291 291 291 292 292 291 283 284 282 286 286 285 285 285 285 285 283
296 297 297 298 299 300 302 303 304 304 301 290 287 287 283 282 281 285 286 287 289 291 292 293 292 291 290 293 294 295 296 295 294 292 291 290 285 280 276 284 284 280 284 285 285 286 286
295 296 296 297 298 299 300 302 302 304 301 290 288 285 279 272 280 282 284 287 286 288 288 289 294 291 292 293 294 293 292 293 293 292 294 289 286 285 279 284 278 284 284 288 288 288 290
295 295 296 296 297 298 299 300 301 302 303 294 289 286 279 268 281 281 282 284 285 285 285 286 287 287 294 290 286 284 283 286 284 285 290 293 288 281 279 279 281 282 283 285 286 285 290
294 295 295 296 296 297 298 299 300 301 302 298 294 288 284 275 276 284 281 283 279 277 278 281 283 286 287 285 282 278 278 281 280 282 286 290 290 285 277 276 271 280 283 287 285 278 285
294 294 294 295 296 296 297 298 299 300 300 298 294 293 287 276 281 283 278 280 283 279 278 275 279 283 284 278 275 275 275 277 277 279 282 284 284 280 279 276 276 281 282 283 276 279 280
293 294 294 294 295 296 296 297 298 298 299 297 293 296 289 280 280 283 285 282 280 280 278 278 281 281 278 276 276 272 271 274 274 275 280 283 281 281 278 276 275 282 281 280 281 282 283
293 293 294 294 294 295 296 296 297 297 298 298 290 296 296 286 285 285 286 287 288 287 283 277 279 278 283 278 273 272 268 268 268 269 277 277 281 277 280 280 281 281 282 283 284 283 283

GFSGBSN_sfc_thetae_075.txt.gz
Theta_e
312 313 314 315 315 315 315 321 321 322 322 321 320 319 320 321 323 323 322 322 321 321 321 321 322 322 315 305 306 310 323 322 309 306 302 299 298 296 294 295 295 293 293 295 296 295 295
311 312 313 315 314 314 315 320 321 322 322 321 319 319 320 321 322 322 321 321 321 320 320 321 322 321 308 297 308 309 308 306 305 303 300 300 298 298 294 293 293 293 294 295 295 294 294
310 313 313 313 314 314 315 320 321 322 322 320 319 319 319 320 321 321 321 320 320 320 320 320 322 313 303 300 306 306 306 304 305 303 300 300 299 297 295 293 295 293 291 291 293 293 293
309 311 312 313 313 313 317 320 321 322 320 319 319 318 319 319 319 320 320 319 320 320 320 321 322 307 298 307 306 305 305 302 303 303 302 301 300 298 295 295 292 289 288 287 289 293 293
308 309 310 313 312 311 314 317 320 321 319 318 318 317 318 318 319 319 319 319 319 320 320 321 307 299 292 311 302 304 303 302 301 302 302 302 299 294 292 289 286 287 283 283 286 292 291
306 307 308 310 312 312 313 314 319 320 319 318 317 317 317 318 318 318 319 319 319 317 314 313 303 294 299 300 303 303 302 302 299 300 298 297 293 289 287 286 282 283 282 283 283 288 289
304 305 306 307 309 311 310 312 318 319 318 317 317 317 317 318 318 318 317 309 297 295 297 295 294 293 298 303 303 300 302 300 297 295 289 290 288 286 288 286 285 284 283 283 285 289 289
303 303 304 305 306 309 309 311 311 318 318 317 317 317 317 318 318 319 305 295 296 298 291 297 297 300 303 302 296 297 301 295 293 287 289 288 285 289 289 287 286 285 284 284 287 289 288
301 302 302 302 303 306 308 309 309 311 315 316 316 317 317 318 319 314 306 303 308 304 291 294 298 299 301 301 296 297 298 293 290 288 286 285 287 290 288 286 286 283 284 284 285 286 285
301 302 301 301 302 304 307 306 308 308 309 310 313 316 317 318 313 312 307 311 311 305 287 289 293 296 301 299 294 300 298 294 290 287 287 286 288 288 286 285 286 283 287 286 286 283 280
302 302 301 300 300 302 304 306 306 306 307 308 309 311 313 318 309 309 310 313 310 299 277 291 292 300 299 294 294 295 298 294 289 288 288 285 286 287 285 286 287 284 288 286 284 283 282
305 304 302 299 299 301 304 306 306 305 305 306 307 308 313 313 313 310 313 311 304 286 277 288 292 292 292 292 292 295 295 295 293 290 289 287 290 289 288 288 288 289 286 284 284 282 277
305 305 304 300 299 299 302 304 305 306 306 305 305 307 308 310 308 311 311 303 286 277 288 286 287 290 289 288 290 290 290 288 286 282 282 285 286 289 290 287 289 285 283 278 277 276 276
305 306 305 303 300 300 300 301 303 304 306 304 304 304 305 307 309 311 305 292 275 283 284 289 289 289 286 290 288 289 288 286 287 286 283 282 281 288 290 288 286 284 283 279 274 273 276
303 304 305 305 303 301 300 300 301 302 305 303 302 300 301 304 309 310 300 284 282 284 290 287 287 285 284 287 289 288 287 288 288 287 283 282 281 288 288 289 290 285 281 284 277 267 274
302 302 304 305 305 303 302 300 300 301 303 302 297 296 297 305 309 306 295 286 286 291 291 290 283 286 282 284 286 285 286 288 288 289 288 287 281 286 287 289 288 285 287 281 278 270 270
299 301 302 304 304 305 304 302 301 299 303 301 293 290 297 304 307 296 288 286 290 295 294 290 287 285 284 285 285 285 286 286 290 289 288 287 285 283 286 285 284 284 283 282 282 280 274
299 300 301 302 303 304 305 304 301 300 302 297 289 284 296 303 288 286 289 292 295 293 295 295 292 289 286 286 285 285 285 287 291 291 286 288 286 281 283 286 286 284 284 284 279 276 275
299 299 300 301 302 304 304 305 303 300 301 292 286 286 296 300 283 284 287 292 293 292 293 294 292 292 290 287 284 286 287 290 291 291 289 289 284 278 282 285 285 283 283 283 282 282 277
298 299 299 300 301 302 304 304 304 302 302 292 285 282 287 292 291 288 286 288 290 295 294 295 294 295 291 288 291 286 287 291 291 290 295 293 284 282 280 281 284 282 283 283 284 280 279
297 297 298 299 300 301 303 304 305 303 303 292 285 282 284 282 285 288 291 290 288 289 295 296 292 292 291 287 288 287 289 289 291 295 291 290 282 282 283 283 283 283 283 283 283 285 281
296 297 297 298 299 300 301 303 304 304 303 289 283 282 284 282 283 287 289 288 288 290 292 290 289 292 292 290 290 288 289 289 289 290 289 289 280 284 281 285 285 283 284 285 286 283 282
296 296 297 297 298 299 300 302 303 304 300 287 285 286 284 283 282 286 286 288 289 291 293 294 293 291 291 292 294 295 295 295 294 291 289 287 283 278 274 283 284 278 284 284 285 285 286
295 296 296 297 297 298 299 300 302 303 300 291 289 286 279 274 281 283 284 288 288 290 288 291 294 290 293 295 296 295 292 292 292 292 293 287 285 283 280 281 275 284 284 288 288 288 288
295 295 295 296 296 297 298 299 300 302 303 293 289 286 279 270 281 281 282 284 286 287 286 287 288 290 294 292 286 285 284 285 285 287 291 292 288 282 280 281 281 282 283 285 286 286 290
294 294 295 295 296 296 297 298 299 300 301 297 292 288 284 275 276 284 281 283 279 281 282 283 285 287 289 287 284 280 279 283 281 281 286 291 290 287 280 278 277 282 284 288 287 280 287
294 294 294 294 295 296 296 297 298 299 300 298 294 294 287 277 281 283 278 280 283 280 280 278 284 285 287 282 279 278 277 278 280 279 281 284 284 282 281 277 278 281 283 285 280 281 281
293 293 294 294 294 295 296 296 297 298 298 297 293 295 289 282 281 284 285 281 280 280 278 279 283 283 281 281 280 276 276 277 274 276 284 283 282 279 280 278 278 282 281 282 283 282 283
293 293 293 293 294 294 295 296 296 297 298 297 290 296 294 286 285 287 286 286 286 286 282 275 280 280 284 279 277 274 272 266 266 270 277 279 284 282 284 283 282 281 282 283 285 284 284

GFSGBSN_sfc_thetae_078.txt.gz
Theta_e
311 312 312 313 315 315 314 315 319 323 323 322 321 320 321 322 323 323 324 324 324 323 324 324 324 323 317 306 307 314 325 326 316 309 307 306 302 304 301 302 302 301 299 301 301 301 301
310 312 313 313 314 314 314 315 318 322 323 322 321 319 320 321 322 323 324 323 322 322 323 323 323 323 312 298 312 314 315 310 310 308 306 306 305 305 300 301 301 300 301 300 300 300 300
308 310 312 313 313 313 313 316 318 322 322 321 320 319 319 320 321 322 323 322 322 322 322 323 324 317 308 303 311 312 310 309 309 307 304 305 306 304 303 299 300 300 298 299 299 300 299
308 308 310 312 313 312 312 313 320 322 321 320 319 318 318 319 320 321 321 321 321 321 322 323 323 314 302 312 311 308 309 308 309 308 307 306 306 303 303 301 299 296 298 295 295 298 299
306 306 308 310 311 312 311 312 319 320 320 319 318 318 318 319 319 320 320 320 320 321 321 322 313 306 300 313 305 309 309 306 306 307 306 304 305 301 299 298 295 294 292 292 291 297 298
304 305 306 307 309 312 310 311 313 319 320 318 318 317 318 318 318 319 319 320 319 320 318 315 306 301 303 303 306 307 308 307 305 305 304 303 302 296 295 296 289 289 290 289 291 295 295
303 304 304 304 307 310 309 310 310 313 319 318 317 317 318 318 318 319 319 315 303 300 306 299 299 299 301 306 307 304 306 304 304 303 298 298 297 293 296 297 294 295 291 291 292 294 294
302 303 303 303 305 308 309 308 309 313 319 318 317 317 317 318 318 319 317 302 302 303 296 300 299 303 306 305 299 302 306 301 300 295 296 296 293 297 294 292 292 292 291 291 293 294 294
301 302 302 303 304 306 309 308 308 310 319 317 316 317 317 317 318 316 310 304 310 307 295 296 300 302 303 304 298 300 302 299 297 294 294 293 293 294 293 292 291 291 292 290 292 292 292
301 301 302 302 302 304 307 307 308 307 312 316 316 316 316 317 312 312 309 314 313 309 289 290 294 299 303 302 297 303 302 300 295 293 293 293 292 293 293 291 294 289 293 293 291 292 289
304 302 302 300 301 303 306 306 307 307 307 310 314 316 316 317 312 307 312 315 313 304 279 292 293 302 302 298 298 299 303 299 294 292 293 290 290 291 291 292 293 291 293 292 292 292 290
304 305 304 300 300 301 305 307 307 307 306 307 309 312 316 315 316 314 316 314 308 289 280 289 294 294 294 296 296 298 299 300 298 294 295 292 294 294 293 292 293 293 293 292 292 291 285
305 305 305 301 299 300 302 304 305 307 306 305 307 309 313 314 310 315 315 309 289 283 291 287 289 293 294 292 293 295 294 293 291 288 288 291 291 294 295 291 293 293 292 285 284 284 283
304 305 305 304 301 300 301 302 304 304 306 305 305 305 308 309 311 315 310 297 283 287 287 292 291 293 290 292 292 292 292 290 293 292 289 287 284 292 294 293 291 292 291 286 280 279 283
302 303 305 305 304 300 300 301 300 303 305 303 303 301 303 305 310 313 302 286 286 288 292 289 291 288 288 290 292 292 292 291 294 293 289 287 285 292 292 293 294 290 287 290 283 277 284
299 301 303 304 304 303 301 301 300 301 303 302 297 297 299 304 309 308 297 289 290 292 293 292 286 289 286 288 289 290 290 294 293 293 294 291 285 289 291 294 293 292 291 286 286 281 280
299 298 300 302 303 304 304 302 301 300 302 301 296 291 298 302 307 301 289 291 293 297 294 291 288 287 288 288 290 289 290 291 295 292 293 292 291 287 290 289 289 288 287 287 288 286 283
298 298 300 300 302 304 304 304 302 300 302 298 292 287 297 303 293 291 292 294 296 296 298 296 293 290 289 289 288 288 288 292 295 294 290 292 289 285 287 290 291 289 289 290 286 282 283
297 298 299 300 301 302 304 304 303 301 301 296 287 289 298 300 285 285 290 294 296 295 295 295 293 293 291 289 286 289 290 293 293 293 291 292 289 283 284 288 289 288 289 289 288 288 283
297 297 298 298 300 301 302 303 304 302 301 297 288 284 289 290 287 288 287 291 292 297 296 297 295 296 291 288 291 288 289 292 293 294 296 295 288 288 284 287 290 286 287 287 289 285 285
296 297 297 297 299 300 301 303 304 303 302 297 288 284 286 285 286 286 290 289 291 291 296 297 294 294 292 288 289 287 291 292 294 295 293 293 287 287 288 288 289 289 288 287 287 290 286
296 296 296 296 297 298 300 302 303 304 301 294 286 284 286 284 286 287 287 286 288 293 294 293 293 295 295 291 291 289 291 292 291 293 292 292 287 288 286 288 288 286 289 288 289 290 289
295 296 296 296 296 297 298 300 302 304 300 291 289 290 288 284 284 286 287 288 289 291 293 296 296 295 294 293 296 296 297 297 296 292 290 290 287 286 284 287 288 284 287 288 290 292 290
295 295 295 296 296 297 298 298 300 302 300 294 292 291 286 280 282 285 287 290 290 290 288 292 295 293 294 298 298 297 295 295 296 295 296 290 288 287 283 284 279 289 292 292 290 291 292
294 295 295 296 296 296 296 298 299 301 303 296 293 290 286 280 283 283 284 287 288 291 287 290 290 289 296 293 287 286 286 287 287 288 293 294 291 284 283 283 287 289 287 289 288 289 293
293 294 294 295 295 296 296 297 298 299 301 296 294 293 289 284 282 286 284 286 285 285 284 285 287 288 292 289 285 283 280 285 282 285 289 293 293 289 284 283 280 290 289 293 294 286 294
292 293 294 294 294 295 296 297 297 298 299 298 294 294 290 284 285 286 284 284 286 286 285 284 285 285 288 286 283 282 282 282 282 283 283 286 287 285 284 284 286 288 288 291 285 289 291
292 293 293 294 294 294 295 296 297 297 298 296 293 296 291 286 286 286 288 285 285 286 284 283 286 284 284 285 284 282 281 281 283 284 285 286 285 284 284 283 282 286 287 288 290 286 289
293 293 293 293 294 294 294 295 296 297 298 297 288 296 295 287 287 289 289 289 289 290 287 282 285 284 288 285 282 280 278 277 279 281 281 284 288 285 287 288 286 287 287 288 289 289 288

GFSGBSN_sfc_thetae_081.txt.gz
Theta_e
310 311 312 312 314 314 314 314 315 317 321 322 321 321 322 322 323 323 324 325 325 325 325 324 322 321 317 306 304 315 324 321 323 316 308 307 305 305 302 304 304 304 302 304 304 303 305
309 309 311 313 313 313 314 314 314 317 319 322 321 320 320 321 322 323 324 325 324 324 325 324 324 322 312 297 312 316 321 320 313 310 308 309 306 308 304 304 303 304 304 302 303 303 303
308 307 310 311 312 312 312 312 313 317 318 322 321 320 320 320 321 322 323 324 323 323 324 324 324 318 306 302 313 315 315 312 311 309 307 309 309 305 306 302 304 304 300 301 302 302 301
307 306 308 310 311 312 311 311 312 315 318 321 320 319 319 320 320 321 322 322 322 322 323 324 323 314 301 313 314 310 313 310 311 310 309 309 309 306 305 304 301 300 301 296 300 301 301
305 305 306 307 309 310 310 310 311 312 319 320 319 318 318 319 319 320 321 321 321 322 322 323 315 309 298 312 306 310 311 307 308 309 307 307 308 304 302 298 296 297 293 296 295 300 300
304 304 304 304 306 309 310 310 310 313 318 319 318 317 318 318 319 319 320 320 320 320 319 317 309 301 304 302 307 308 311 309 306 306 303 303 303 299 300 298 291 293 294 295 296 297 297
302 303 303 304 305 308 309 309 309 310 319 319 318 317 318 318 319 319 319 316 307 305 307 298 299 300 301 307 309 306 308 306 306 303 297 301 297 293 296 299 300 298 296 294 296 296 296
301 302 303 303 304 307 309 308 308 309 312 319 318 317 317 318 319 319 316 305 303 305 296 303 300 303 306 306 299 303 308 301 300 296 300 297 294 298 300 296 296 296 294 294 295 296 296
302 301 302 302 303 306 308 307 308 307 310 317 317 317 317 317 318 316 311 306 310 308 295 296 300 302 302 304 300 300 304 302 299 296 297 294 296 298 296 294 294 294 293 293 293 295 296
303 301 302 301 302 304 307 307 306 307 308 317 317 316 316 316 311 312 309 310 313 309 289 290 294 300 303 304 298 304 304 302 299 295 296 296 295 295 295 294 295 290 295 295 294 293 289
305 304 303 300 301 303 307 306 306 306 307 313 316 316 316 315 310 307 310 315 314 306 279 293 294 303 304 298 299 299 304 300 295 296 296 292 292 293 293 295 296 293 296 296 295 294 292
304 305 305 301 299 302 305 306 306 307 307 308 315 315 315 314 314 312 316 315 310 289 279 288 294 295 295 297 297 299 300 301 300 295 296 293 296 296 296 295 296 296 295 295 295 293 285
304 305 304 302 299 301 303 303 304 305 306 306 312 314 313 316 307 317 317 308 289 282 292 288 288 294 294 293 294 296 295 293 292 288 288 292 291 295 296 292 296 296 292 286 284 284 283
303 304 305 304 300 300 301 302 303 303 305 305 307 313 311 311 316 318 312 296 283 288 289 293 292 293 290 293 294 294 293 291 295 294 290 287 284 292 296 295 291 293 292 287 280 282 285
301 302 304 304 303 300 301 300 300 303 304 304 304 304 307 304 311 317 302 287 287 290 293 291 291 289 289 292 292 293 292 292 294 295 289 288 287 294 294 295 296 292 289 293 285 281 285
298 300 302 303 305 303 301 301 299 300 302 304 299 300 299 303 305 311 297 289 291 295 295 293 287 290 286 289 290 291 291 295 294 296 296 293 286 292 292 295 294 293 294 286 288 282 282
298 298 299 301 303 304 303 302 300 300 302 301 296 293 297 303 305 302 290 291 294 296 296 292 291 289 290 289 290 289 291 294 297 295 295 294 292 288 291 290 290 289 288 290 290 289 286
298 297 300 300 301 303 304 303 301 302 301 299 294 286 297 302 294 297 293 295 296 296 298 295 294 292 291 291 289 290 290 293 298 296 290 294 291 286 288 292 293 293 291 291 287 283 285
298 297 298 299 300 301 303 304 302 301 300 297 289 288 298 299 286 289 295 294 297 295 295 295 292 293 293 291 287 291 293 294 297 294 293 294 290 283 284 289 290 289 291 293 292 291 284
298 297 298 298 299 300 302 303 303 302 301 298 290 285 289 289 287 291 291 293 292 299 297 298 295 294 291 290 293 290 291 293 295 295 296 296 291 289 284 287 291 287 290 290 290 286 287
297 297 297 298 298 299 300 303 304 302 301 298 290 285 287 285 286 287 293 293 291 292 298 299 295 294 291 288 289 289 292 291 293 295 295 295 288 290 291 290 292 290 290 290 288 290 287
297 297 297 297 297 298 299 301 302 303 301 296 287 285 288 286 289 287 285 288 292 293 295 294 294 296 294 290 291 288 291 292 290 293 292 294 289 291 287 289 289 289 291 291 290 290 290
296 296 296 296 296 297 298 299 301 304 300 294 292 291 289 285 287 287 287 287 288 294 297 298 297 296 294 295 298 297 298 297 295 292 291 290 288 287 284 289 288 284 287 290 290 292 292
295 295 296 296 296 296 297 298 300 303 301 297 295 293 288 281 285 285 287 288 289 288 288 293 296 296 296 300 301 299 298 297 296 294 295 290 289 287 284 286 278 289 295 294 292 293 294
294 294 295 295 296 296 296 297 298 301 302 298 297 293 290 283 284 284 286 288 291 292 288 288 291 290 297 296 291 287 287 287 286 291 294 295 291 286 284 283 287 290 290 290 289 290 295
293 293 294 295 295 296 296 296 297 298 301 297 297 296 293 286 283 286 286 289 287 287 286 286 288 289 293 288 286 285 284 286 285 285 290 293 294 289 284 283 279 289 293 296 295 285 296
292 292 293 293 294 295 295 296 296 297 299 298 294 297 294 287 287 288 285 285 291 289 287 285 285 286 289 285 285 285 285 287 285 284 284 286 287 285 285 285 288 290 291 296 284 288 293
292 292 292 293 294 294 294 295 296 297 298 296 293 296 294 288 288 287 289 287 288 290 287 285 285 285 285 285 284 284 284 284 285 287 288 287 285 285 286 284 281 289 290 289 292 289 291
292 292 293 293 293 294 294 295 296 296 298 297 290 296 297 289 288 290 291 291 291 292 290 286 286 285 289 286 286 284 282 282 284 282 284 285 290 288 289 289 288 292 289 291 292 291 291

GFSGBSN_sfc_thetae_087.txt.gz
Theta_e
309 310 310 310 312 313 313 314 314 314 315 316 317 321 321 323 323 324 325 325 325 324 324 324 323 321 314 305 306 320 323 325 315 314 309 307 304 301 297 300 300 297 297 300 299 299 300
308 308 308 310 310 312 312 312 312 313 314 315 316 319 320 321 322 324 324 325 324 324 324 324 322 321 310 300 317 319 318 314 312 311 308 308 305 304 299 300 298 299 299 298 299 297 298
307 307 306 308 309 310 311 311 311 312 312 314 316 318 320 321 321 323 323 324 324 324 324 323 322 315 307 304 319 319 317 313 313 310 306 309 307 302 300 298 301 298 295 295 296 297 296
306 306 306 305 307 308 310 310 310 310 311 312 315 317 319 320 321 322 322 322 323 323 322 323 320 312 301 313 320 316 317 315 314 312 309 309 308 302 300 300 298 295 293 289 294 297 297
304 304 304 304 305 306 308 310 310 310 310 312 314 317 319 319 319 320 321 321 321 322 322 322 311 307 298 313 307 317 317 312 311 311 309 310 306 298 298 293 291 291 285 287 291 296 294
304 303 302 302 303 305 306 309 308 309 309 311 314 316 319 319 319 319 320 321 321 321 318 315 312 298 302 300 307 310 318 316 307 306 303 302 299 294 291 288 285 286 286 287 288 292 291
305 303 303 302 303 303 305 308 308 308 309 309 311 317 319 318 319 319 318 314 306 304 308 302 301 299 300 304 309 306 311 308 305 301 293 298 292 288 289 290 291 291 289 289 288 293 291
306 303 303 303 302 303 306 307 307 307 309 309 311 317 319 318 318 319 314 303 302 304 298 302 302 302 303 305 299 302 307 300 298 292 296 292 288 293 295 293 292 290 289 286 290 292 291
306 304 303 303 301 303 306 306 305 307 308 308 310 316 318 318 318 315 308 304 310 308 294 297 300 300 300 301 298 299 303 300 295 291 292 289 292 296 294 292 290 289 288 286 287 290 290
307 305 303 303 301 303 306 306 306 306 306 307 309 314 317 317 312 311 306 309 310 302 285 289 292 297 300 300 296 303 305 300 296 291 293 291 296 294 292 291 290 286 291 291 289 286 283
307 305 304 303 300 302 305 305 305 305 305 306 308 311 317 317 311 306 308 308 306 298 273 289 293 302 300 296 297 297 302 298 293 293 292 290 291 292 290 291 291 288 292 290 289 287 284
306 306 306 305 301 301 303 303 304 304 305 305 305 309 316 314 312 312 312 309 301 286 276 286 292 293 293 295 295 297 297 298 297 294 292 290 293 293 293 292 293 293 291 290 288 285 278
304 304 304 306 301 302 301 301 302 304 304 305 305 307 314 315 307 313 311 301 284 278 289 284 286 292 291 290 291 293 292 291 288 286 286 288 289 291 293 290 291 291 286 278 278 277 277
302 304 304 305 302 301 300 300 301 302 303 304 304 305 313 312 314 313 306 291 278 283 285 289 289 290 287 291 290 291 290 288 290 290 284 283 281 289 292 291 287 287 285 278 275 275 276
300 301 303 303 303 301 301 299 300 302 303 303 302 305 309 307 312 310 296 282 281 285 289 287 289 286 286 290 290 290 289 288 290 290 286 283 284 290 291 291 291 286 284 287 280 271 276
299 299 300 302 303 303 301 300 300 301 302 302 295 299 298 306 312 305 290 285 286 292 291 290 283 286 284 287 286 287 288 291 290 292 292 288 282 289 289 291 289 288 290 282 280 272 272
299 298 298 300 302 302 303 301 299 301 301 300 292 293 297 304 309 298 285 286 289 292 293 288 286 285 286 286 286 287 287 290 293 291 292 291 288 285 288 286 285 285 282 283 285 280 276
299 298 299 299 300 302 303 304 300 300 301 296 286 285 297 301 294 293 287 289 294 291 293 291 291 289 288 289 286 287 287 289 296 292 288 291 287 282 284 288 289 286 285 285 280 278 280
298 298 298 299 299 301 303 304 301 300 300 293 285 285 297 301 286 287 292 291 294 291 291 290 289 290 291 289 285 288 289 292 293 293 290 292 285 279 282 285 287 285 286 286 286 281 279
298 298 298 298 299 300 301 303 302 301 301 294 286 283 287 292 289 291 289 289 291 296 293 294 291 291 290 288 291 288 288 291 293 292 296 295 288 284 280 282 286 283 285 286 285 279 279
299 298 298 298 298 298 300 302 303 302 301 294 286 283 284 285 287 291 291 290 290 289 294 296 291 290 289 286 288 288 290 289 291 294 292 291 284 286 286 287 287 286 286 285 285 286 283
298 298 298 298 297 298 299 302 302 302 301 292 285 284 286 285 287 290 291 288 289 292 292 292 290 291 290 288 289 286 289 289 289 290 289 290 283 285 283 286 287 284 287 287 286 284 284
297 296 297 297 297 297 298 300 302 302 300 289 290 291 287 285 285 288 289 288 290 293 294 296 294 292 290 292 293 294 294 293 292 290 288 288 283 280 277 283 284 280 284 286 287 286 288
296 296 296 297 297 296 297 299 302 302 300 293 291 289 284 280 284 286 291 291 290 290 290 291 295 293 294 297 296 295 294 292 292 292 292 288 285 282 276 278 273 284 290 290 289 289 290
294 296 296 296 297 296 296 298 300 302 300 295 293 290 286 280 284 284 286 288 290 290 287 290 289 290 292 294 287 285 284 285 286 288 290 292 287 281 278 274 282 284 287 286 285 287 290
294 294 295 295 296 297 296 297 298 301 301 296 293 293 289 282 281 287 285 286 285 284 285 285 288 290 292 288 285 279 278 280 281 282 289 291 290 286 279 279 275 287 288 290 290 283 291
294 294 294 294 295 296 296 296 297 300 300 297 293 294 288 282 284 287 284 284 288 286 284 285 286 287 289 285 284 280 276 282 280 280 281 282 282 282 278 276 279 286 287 291 281 285 288
293 294 294 294 295 295 295 296 297 298 299 295 293 295 289 284 284 286 288 286 286 287 284 284 286 285 285 285 283 285 279 282 280 282 283 283 281 281 279 276 278 286 286 286 289 286 288
292 292 293 293 294 294 295 295 296 297 298 296 290 296 295 287 286 289 289 290 289 289 287 285 285 285 287 286 285 285 281 280 278 279 284 281 284 282 285 285 286 285 285 286 288 288 286

GFSGBSN_sfc_thetae_093.txt.gz
Theta_e
311 309 309 311 311 311 312 313 314 315 315 315 317 317 317 317 318 320 323 324 324 325 325 324 323 322 313 304 303 317 325 324 313 312 310 307 308 307 303 301 299 296 296 297 297 298 297
310 309 309 310 311 311 311 313 313 313 313 314 314 316 317 317 316 320 322 323 324 325 325 323 323 321 308 299 314 320 315 311 311 311 309 310 307 308 303 302 298 298 298 297 296 296 297
310 309 310 311 311 311 310 310 312 312 313 312 312 314 315 316 317 320 322 323 324 324 324 323 323 314 306 302 315 315 312 310 313 311 307 310 309 306 303 301 301 298 294 294 294 295 295
310 309 310 310 310 309 309 309 310 311 311 310 311 313 315 316 315 319 322 323 324 323 323 323 321 311 303 314 317 315 312 312 314 313 311 311 310 304 301 301 300 294 293 289 293 294 294
310 308 309 310 308 308 307 308 309 310 310 310 310 312 314 315 314 317 321 323 322 323 323 322 312 307 299 319 311 314 313 308 311 312 312 312 308 302 302 297 293 294 286 286 290 293 292
308 308 309 308 308 307 305 306 308 309 308 308 310 310 313 313 314 316 320 322 322 322 320 315 312 300 306 303 311 312 314 312 308 308 306 305 302 297 296 294 287 289 286 287 289 292 289
309 307 307 307 306 304 304 305 307 309 308 309 309 309 312 313 314 314 319 318 310 308 307 301 302 297 302 308 314 311 312 309 308 305 298 301 295 292 294 296 293 289 289 288 289 292 290
307 307 306 305 304 303 303 305 307 308 308 308 308 309 311 312 314 314 317 310 309 309 298 304 303 299 303 310 303 307 312 303 301 297 298 296 293 298 298 297 293 291 288 288 289 291 290
306 307 306 305 305 303 303 305 307 307 307 307 307 308 310 312 314 312 312 312 313 312 295 298 302 298 300 303 301 302 306 302 299 295 296 293 297 300 297 294 291 292 287 288 289 289 289
307 308 306 305 305 303 305 306 307 306 305 305 306 307 310 312 308 311 310 313 314 308 288 290 296 297 300 302 297 307 305 301 296 294 296 295 300 296 295 293 294 289 293 290 288 288 285
305 306 306 306 305 303 305 306 306 305 305 305 305 307 308 313 310 307 312 314 306 303 278 291 293 302 299 296 297 300 305 300 293 293 293 291 295 294 292 292 295 291 292 290 289 286 283
305 305 306 305 305 303 304 304 303 303 303 304 304 306 308 308 308 313 313 312 304 285 277 286 291 291 294 293 294 298 298 301 300 294 293 291 298 297 296 296 296 293 291 289 288 285 280
306 304 306 305 305 303 303 303 301 301 302 303 304 304 305 309 306 312 311 303 284 280 287 283 285 291 291 289 291 294 293 291 290 285 286 289 291 294 297 292 295 291 287 280 279 278 279
303 305 306 306 306 304 303 301 300 300 301 302 303 304 305 307 314 311 305 293 279 282 283 287 288 290 287 289 289 291 291 288 291 287 284 284 281 289 294 293 289 288 287 280 275 277 279
299 302 304 305 305 304 303 301 300 300 301 302 303 299 302 307 312 310 297 284 284 284 286 286 288 285 285 289 288 288 288 288 290 288 283 282 283 292 292 294 294 289 285 289 280 272 275
301 300 305 305 304 303 303 302 301 300 301 302 293 294 301 311 312 304 292 287 283 288 289 290 283 286 282 286 284 285 286 290 289 292 291 286 280 287 288 293 293 290 292 282 281 275 271
301 300 301 303 303 303 303 302 302 300 301 300 290 292 299 311 309 297 286 287 286 290 292 287 284 283 285 285 285 285 285 287 292 291 293 286 285 283 288 287 287 287 285 285 286 281 276
301 300 300 300 301 302 303 302 303 300 301 294 289 286 297 303 292 293 289 289 292 290 290 289 288 286 286 287 283 285 284 286 294 293 287 289 286 280 284 288 290 290 288 287 283 278 278
300 300 300 300 300 300 301 302 303 300 299 290 285 285 296 297 285 285 293 291 290 289 288 287 287 288 289 288 283 286 286 291 293 292 288 289 283 278 283 286 288 286 286 286 285 283 281
300 300 299 299 299 299 300 302 303 302 300 291 287 282 288 291 289 289 289 289 287 292 289 289 288 290 289 287 287 285 286 289 291 291 295 294 285 282 281 284 287 283 284 284 285 281 280
299 300 299 298 299 298 299 302 303 302 300 291 286 282 284 282 284 289 291 290 287 286 290 290 286 290 289 285 284 284 286 287 289 293 292 291 282 283 286 287 288 286 285 285 284 286 282
299 300 299 299 298 298 299 301 302 302 301 289 284 283 285 284 286 289 291 288 287 289 289 287 286 289 290 285 287 283 286 286 288 287 288 288 280 285 280 285 286 286 287 287 287 287 285
298 299 299 299 298 297 298 300 301 302 300 286 290 288 286 285 284 287 287 288 288 291 291 291 289 288 287 288 291 292 293 292 290 288 288 285 282 279 278 283 284 280 285 286 287 287 288
298 299 299 298 297 297 297 299 301 302 300 290 289 289 282 280 283 286 290 290 290 290 288 288 290 290 292 295 296 295 293 293 293 291 292 287 284 281 279 281 275 285 288 290 288 289 290
297 298 298 298 297 296 297 298 301 302 301 292 292 290 285 279 283 286 290 290 289 289 288 289 289 289 293 293 287 285 283 284 285 289 289 290 287 282 279 277 281 284 285 285 284 286 289
296 297 297 297 297 297 297 298 300 301 300 292 292 294 288 282 281 284 289 291 287 285 285 285 289 289 291 287 285 277 277 278 280 285 289 290 289 285 278 277 275 283 288 289 289 282 289
296 296 297 296 297 297 297 298 299 301 300 293 290 293 289 283 285 284 285 289 290 286 285 286 287 287 288 281 280 278 275 283 280 280 283 282 284 282 280 273 279 285 287 288 281 283 285
296 296 296 296 296 297 297 298 299 300 299 294 292 294 289 284 285 285 286 286 287 288 287 286 287 286 284 282 283 277 275 280 278 282 285 285 283 281 280 271 275 287 286 284 287 286 287
295 295 295 296 296 296 296 297 298 298 298 297 289 294 293 286 285 288 286 288 288 289 287 285 285 286 287 285 283 278 277 278 277 278 284 282 286 283 285 282 287 285 286 286 288 288 287

GFSGBSN_sfc_thetae_096.txt.gz
Theta_e
313 313 312 311 311 312 313 313 314 315 316 316 317 318 318 318 318 318 319 318 324 324 325 326 325 323 315 304 304 315 325 326 315 311 308 306 306 305 301 300 300 296 297 297 297 296 296
312 312 312 311 310 312 312 313 313 314 315 315 314 317 317 318 318 318 317 319 322 323 325 325 325 321 309 300 313 318 318 311 310 308 310 309 308 308 303 301 299 298 299 296 297 295 295
311 312 312 310 310 311 311 312 312 313 314 314 313 314 316 317 317 318 317 319 322 323 324 325 324 315 306 304 315 313 312 310 311 311 308 309 308 307 304 301 300 301 298 298 296 295 294
310 311 312 310 310 310 311 311 312 312 313 313 312 312 313 315 317 317 317 320 322 323 323 324 322 311 302 314 313 311 312 311 314 314 311 311 311 305 302 302 299 301 298 292 295 295 294
310 311 311 310 310 310 310 310 310 311 312 311 310 311 312 315 316 317 317 320 320 322 323 323 312 308 299 318 309 311 311 308 311 312 312 313 309 303 304 299 297 295 293 291 295 295 292
308 307 309 309 310 310 309 309 309 310 310 310 310 310 311 314 315 315 316 320 320 322 321 316 312 302 306 303 309 311 313 312 308 308 307 306 303 298 297 298 290 290 292 288 293 293 291
309 309 308 309 310 309 308 307 307 309 310 309 309 309 309 313 314 315 315 315 308 308 309 302 302 297 303 309 312 309 311 309 308 305 297 301 297 294 297 301 299 297 295 293 289 293 290
308 308 308 309 308 308 306 305 306 308 310 309 309 309 309 312 313 314 313 308 309 311 298 305 302 302 307 309 303 306 311 303 301 294 299 296 294 300 300 300 295 293 292 292 290 291 290
307 308 308 308 307 306 305 304 305 307 309 308 308 308 308 310 311 310 308 309 315 311 296 299 300 302 305 307 302 303 307 304 299 295 296 294 297 300 298 296 292 292 291 291 288 290 289
307 305 306 306 306 305 304 304 306 307 308 307 306 306 307 310 303 305 305 313 313 309 288 292 295 298 301 304 300 308 307 302 297 295 296 296 300 297 296 294 296 290 295 292 289 288 286
306 308 306 306 306 305 304 305 306 307 306 305 305 305 307 310 305 302 310 314 312 306 278 291 294 303 301 297 300 301 305 301 294 295 296 292 296 295 293 294 296 293 294 291 290 286 284
305 305 306 306 305 304 305 306 306 306 305 305 304 304 306 307 305 307 314 310 307 285 278 287 293 293 293 293 294 300 299 301 300 294 294 292 297 298 297 297 297 295 292 291 289 287 280
306 306 305 306 305 304 305 305 304 303 304 304 304 304 304 307 298 307 312 303 285 282 287 284 287 293 291 290 293 295 293 291 290 285 286 290 292 294 298 293 294 292 289 281 280 279 279
304 304 305 305 305 304 304 304 302 302 302 302 302 303 303 304 308 306 306 293 281 284 284 287 291 292 288 290 291 293 291 288 291 287 287 285 283 290 296 294 290 289 290 282 276 276 278
302 303 303 305 305 304 304 302 301 301 302 302 302 298 300 303 307 305 298 285 284 285 286 286 290 287 286 288 289 290 290 289 291 289 285 283 284 292 293 295 294 288 286 288 280 274 277
299 303 301 305 306 304 303 302 301 300 301 301 293 294 298 308 307 300 293 287 284 288 289 291 285 288 283 286 285 286 288 292 291 291 290 287 281 288 290 294 294 291 293 285 282 275 273
300 302 303 305 304 304 303 303 302 301 300 300 293 291 298 306 305 295 285 286 286 291 293 288 284 283 285 284 283 285 287 287 292 290 292 288 285 282 288 288 288 288 287 286 286 280 275
299 300 301 303 304 303 304 303 303 301 300 295 289 285 297 303 287 286 288 289 292 290 291 287 287 285 286 287 282 284 284 287 295 293 288 290 285 279 282 286 290 290 287 287 284 278 278
301 299 300 301 301 302 303 303 304 301 299 291 285 286 296 299 283 284 291 290 291 289 287 287 286 287 290 287 283 286 285 290 294 292 289 289 283 278 282 286 286 287 287 291 288 283 281
301 301 300 300 301 301 302 303 302 302 299 291 287 280 288 290 286 288 288 287 286 292 288 288 287 290 289 286 286 285 286 289 293 293 296 294 284 282 279 280 285 281 288 286 288 282 282
301 300 299 300 299 299 300 302 303 302 300 291 286 282 283 282 284 288 292 289 286 285 288 289 285 288 287 283 284 283 285 286 289 294 292 290 281 283 284 285 285 284 285 286 284 286 282
300 300 299 299 299 298 299 302 303 302 300 288 284 282 285 283 285 288 290 288 287 287 287 285 286 288 287 284 286 282 285 285 285 286 290 287 280 284 280 283 284 283 285 287 286 286 286
299 299 299 299 298 298 298 300 302 302 297 286 289 289 285 284 284 285 287 288 288 290 290 290 289 287 285 287 291 292 293 292 290 289 286 287 282 280 275 282 284 280 284 286 287 286 288
298 299 299 299 298 297 297 299 301 302 299 289 288 289 283 276 282 285 289 290 288 290 288 288 290 289 290 296 296 294 292 291 291 290 292 284 283 278 276 281 276 283 287 290 288 290 292
298 299 299 298 297 297 297 298 300 302 300 292 291 290 284 274 282 284 288 290 290 290 287 289 289 290 295 294 288 286 285 285 284 288 288 290 285 278 279 273 279 283 284 284 283 286 289
298 298 298 298 297 297 297 298 300 301 299 293 293 294 288 279 278 283 284 291 288 286 285 285 288 290 293 288 285 277 277 277 279 281 286 288 289 285 279 269 270 280 287 288 288 281 290
298 298 298 297 297 297 298 299 300 301 299 294 291 293 290 277 285 283 283 288 291 289 284 286 287 289 290 285 275 272 272 280 280 279 280 278 279 282 280 272 275 283 285 287 279 281 285
297 297 297 297 297 297 298 299 300 300 299 294 292 294 290 283 284 284 285 283 287 290 287 286 288 287 285 286 278 274 271 278 276 281 283 280 280 279 274 269 275 285 284 284 287 286 287
296 297 296 296 297 297 297 298 298 298 298 296 289 294 294 286 285 287 285 288 287 286 289 286 286 286 289 284 278 275 277 274 273 278 282 280 283 280 284 283 287 285 285 286 287 288 288

GFSGBSN_sfc_thetae_102.txt.gz
Theta_e
315 315 313 314 315 316 316 316 315 315 316 317 317 318 319 321 323 323 323 322 324 323 325 326 326 325 320 311 310 318 327 328 324 320 312 309 306 304 301 304 304 303 300 302 301 303 302
315 313 313 313 314 315 316 315 315 316 316 316 317 318 319 320 322 322 323 322 320 320 322 325 325 324 315 303 316 319 319 323 321 316 313 310 308 310 304 303 303 306 303 304 303 302 301
313 312 312 312 313 314 315 315 315 315 315 316 316 317 318 318 320 321 321 322 322 320 319 324 325 320 311 308 319 322 322 321 316 316 312 312 313 309 307 302 305 305 302 305 305 304 300
313 311 312 312 312 314 314 314 314 314 315 315 316 316 317 317 318 319 320 320 320 321 320 319 324 318 306 316 320 317 317 314 315 315 314 314 315 308 306 305 305 302 303 298 304 303 304
313 312 311 311 312 313 314 313 313 313 314 314 314 315 316 318 318 318 319 319 319 320 320 320 315 312 304 316 311 316 316 311 312 313 314 315 313 307 304 302 298 299 296 298 300 305 306
310 311 310 311 312 313 314 313 313 313 313 313 314 314 315 316 317 317 318 319 318 318 316 316 315 306 306 305 310 312 315 314 310 310 308 308 308 303 302 299 292 294 295 297 298 301 301
310 309 309 310 310 313 313 313 313 313 313 313 313 313 314 314 314 316 315 312 305 303 307 302 304 304 306 310 312 309 312 311 310 307 300 304 298 296 299 301 302 303 300 298 301 300 301
308 307 309 309 310 310 309 312 312 311 312 313 312 312 312 312 313 315 314 303 304 309 299 305 307 308 308 310 302 306 312 304 303 297 302 299 296 303 303 302 302 300 299 299 298 297 300
307 307 308 308 310 310 307 308 312 311 312 312 312 312 311 311 313 312 307 306 315 313 299 300 306 305 304 308 301 302 307 305 301 297 298 296 299 304 303 300 298 299 298 299 297 296 296
305 307 307 308 309 308 308 311 311 311 311 311 311 311 311 310 307 307 304 311 315 313 289 292 299 303 305 306 299 307 309 305 300 296 298 298 303 301 300 300 300 292 299 298 293 293 290
305 306 307 308 309 308 309 311 310 310 310 311 311 311 310 311 305 302 305 313 313 307 278 294 297 309 307 300 300 301 308 304 297 297 298 296 298 299 297 299 303 295 298 296 294 291 290
306 306 307 307 308 307 310 310 309 309 309 310 310 310 309 307 306 307 310 313 305 285 279 286 296 297 298 299 299 302 301 304 306 299 298 296 299 302 301 303 303 297 294 293 291 289 283
305 306 307 307 307 303 310 309 307 306 308 309 309 308 307 306 299 308 309 302 283 279 287 283 289 296 295 294 295 297 295 294 293 289 289 293 296 296 301 295 297 296 293 284 282 283 285
305 306 307 307 307 306 306 307 307 308 308 308 307 306 305 305 308 309 303 287 277 284 285 289 293 295 291 294 293 295 294 292 296 296 291 288 286 293 297 297 292 292 293 287 281 283 287
304 305 306 307 305 306 305 307 307 307 307 307 306 303 300 302 305 306 292 279 282 286 288 289 293 289 289 292 292 293 293 293 296 298 291 288 287 294 297 297 297 290 289 292 286 279 283
304 305 305 305 306 305 306 306 306 306 305 304 299 296 295 303 305 299 287 281 284 289 292 293 286 290 286 288 289 291 291 296 295 297 300 294 286 290 293 296 295 295 296 287 288 282 281
304 306 305 305 306 306 305 305 304 304 304 302 297 289 299 305 303 292 282 282 287 290 294 292 289 289 289 288 292 291 291 295 297 294 298 296 291 285 291 290 289 290 289 290 290 289 284
302 302 305 306 306 306 304 304 304 304 303 300 292 285 299 303 287 286 285 286 290 288 292 294 294 294 291 293 290 290 290 293 298 295 292 292 290 284 285 290 296 295 292 292 288 284 286
301 303 305 305 305 305 304 304 304 303 302 296 287 289 297 299 282 284 288 288 290 288 288 292 290 293 295 291 288 289 292 295 298 296 293 292 287 281 282 286 289 290 293 294 293 289 285
300 301 303 305 304 305 305 304 304 303 301 297 290 284 289 292 290 287 286 287 287 292 288 291 291 295 292 289 291 287 291 293 297 298 295 295 288 287 284 287 289 286 290 292 292 286 288
300 300 298 304 304 305 305 304 304 303 302 296 289 285 286 282 284 288 289 288 286 286 288 291 290 292 290 285 286 288 290 290 295 297 295 294 286 287 287 289 289 290 290 290 289 292 288
300 300 300 300 303 304 305 304 303 302 300 292 285 285 286 285 287 287 287 285 286 287 287 287 289 291 292 288 289 287 290 291 290 294 293 291 285 288 284 288 289 287 290 292 292 292 292
300 300 299 300 301 303 304 304 303 302 296 290 290 290 289 286 286 285 286 287 287 289 291 292 294 291 290 291 294 296 296 295 294 293 291 289 287 286 282 286 287 283 287 290 291 293 294
301 301 300 299 300 302 303 303 303 301 296 293 292 291 286 282 284 286 288 289 287 288 288 290 294 292 293 297 296 295 294 294 295 295 295 289 286 286 281 282 278 289 290 294 292 293 295
300 300 299 299 299 299 300 301 303 301 298 294 294 291 286 281 284 284 287 288 289 288 289 289 291 293 297 295 288 286 285 285 284 291 294 294 290 282 281 283 286 288 287 289 288 289 295
300 300 299 298 298 298 299 302 301 301 299 296 295 295 289 283 282 284 284 289 286 285 285 286 291 293 295 290 287 283 280 282 282 284 289 292 293 289 280 281 278 286 289 292 294 285 295
299 299 299 298 299 299 299 301 302 300 299 295 294 296 289 283 284 284 283 286 291 289 287 287 288 289 292 287 283 282 281 283 282 280 281 285 286 284 282 283 284 290 290 292 285 289 292
299 299 298 298 299 300 300 301 301 300 299 296 292 295 291 283 284 285 285 283 287 290 287 288 289 289 288 286 284 281 282 282 283 285 285 284 284 284 283 282 280 290 288 288 293 291 293
298 298 298 298 298 299 299 300 301 300 299 296 291 295 294 286 285 288 287 288 286 286 288 287 289 291 293 287 284 283 280 282 284 282 286 284 289 286 288 288 293 291 293 292 292 293 292

GFSGBSN_sfc_thetae_105.txt.gz
Theta_e
317 317 318 318 318 318 318 318 318 318 317 317 317 318 320 320 321 324 325 325 325 325 325 326 325 325 322 311 311 320 328 328 325 323 315 314 313 310 303 305 309 306 306 304 304 305 305
317 317 317 317 317 317 317 317 318 317 317 317 317 317 318 319 320 322 324 324 324 324 325 325 324 324 316 304 321 323 323 324 323 321 315 315 314 317 309 305 305 308 308 304 304 306 303
318 316 317 316 316 316 316 317 317 317 316 316 316 317 318 318 320 322 323 323 323 322 324 325 325 320 311 309 322 322 320 322 323 321 315 316 316 314 312 305 308 307 304 305 304 308 307
317 316 316 316 315 315 315 316 316 316 316 315 316 316 317 318 319 321 321 321 322 320 321 322 324 317 306 320 323 320 321 321 323 323 319 319 316 311 308 308 304 302 302 298 305 306 307
309 316 315 315 315 314 314 315 316 316 315 315 315 315 317 317 318 319 320 320 320 321 320 320 315 312 304 318 314 320 321 316 316 317 316 316 313 308 306 301 300 301 296 298 301 307 305
310 315 314 314 314 314 314 315 315 315 314 314 314 315 316 317 317 317 318 318 318 318 318 317 314 304 307 306 313 317 319 317 312 312 309 308 307 304 302 301 293 296 296 298 298 304 303
308 314 313 313 313 313 313 314 314 314 314 314 314 315 316 316 317 318 316 312 304 304 307 302 302 302 305 312 316 313 315 313 312 309 300 303 297 297 301 301 303 302 299 298 301 303 303
307 312 312 313 313 312 313 314 314 314 314 314 314 315 315 316 317 317 315 305 306 308 298 306 306 307 310 312 304 308 313 305 304 298 303 299 294 301 305 305 303 300 299 299 301 301 302
308 312 312 312 311 312 312 313 313 313 313 313 313 314 314 315 315 314 309 307 313 313 299 301 305 304 306 308 303 303 308 306 302 299 300 296 299 303 302 301 299 301 299 300 299 299 300
308 310 311 311 310 311 311 312 312 312 312 312 313 313 313 313 307 309 304 312 314 313 290 292 298 302 306 306 300 310 311 306 302 298 300 298 302 301 299 298 301 296 303 303 297 297 292
308 310 309 310 310 310 310 310 311 311 311 312 312 312 312 312 305 303 307 312 313 307 276 295 297 310 307 300 301 302 311 304 298 299 300 295 298 298 299 299 302 298 303 301 298 294 292
308 308 309 309 308 310 310 309 311 311 311 311 311 312 311 309 309 308 311 312 308 285 278 289 298 298 298 299 299 302 302 305 306 300 300 299 303 302 300 303 304 300 296 295 292 291 286
306 307 307 307 308 310 309 309 310 310 311 310 311 311 309 308 301 311 312 304 283 278 288 286 290 296 295 294 295 297 295 295 292 289 290 296 298 300 303 298 300 299 294 286 284 285 286
306 306 307 307 307 308 309 310 311 310 310 310 310 310 307 306 309 310 306 289 276 284 286 289 290 295 291 294 294 295 293 292 298 297 292 289 285 296 302 299 292 295 296 289 281 283 287
305 306 306 307 307 307 308 310 309 309 309 309 309 307 304 306 309 310 295 280 281 285 291 288 289 289 290 293 292 293 292 292 296 299 291 289 288 296 300 300 299 291 291 298 288 282 286
305 306 307 307 307 305 307 308 308 308 308 308 301 298 298 306 308 303 288 282 284 290 289 289 285 290 286 288 289 290 290 296 297 301 301 295 286 291 294 298 297 297 298 288 290 283 282
304 305 306 307 307 304 306 307 308 308 307 305 298 290 299 305 305 293 282 283 286 290 290 286 289 286 290 288 290 290 291 296 300 299 300 298 292 286 292 291 290 292 291 294 294 292 286
304 305 306 307 305 306 306 307 307 307 305 302 297 286 301 305 287 288 285 287 290 288 292 288 286 290 291 292 291 291 290 297 302 301 294 297 293 284 287 291 297 297 294 294 288 286 289
304 304 306 305 304 305 306 307 307 306 304 299 290 289 299 300 283 283 288 286 289 288 289 287 287 293 296 292 289 293 294 301 302 299 296 295 289 280 282 287 291 292 295 296 295 291 288
303 303 305 306 305 305 306 306 306 305 304 300 294 283 290 292 293 287 285 285 285 291 290 289 287 287 294 292 295 292 292 299 301 299 298 297 292 289 284 288 290 287 292 294 294 288 289
302 302 305 305 306 306 306 306 305 304 303 301 295 287 287 282 284 288 288 287 285 285 291 289 287 287 292 286 289 290 291 293 296 297 295 295 287 290 292 294 293 292 292 292 291 293 290
300 301 304 304 305 306 306 305 305 303 301 297 287 286 287 287 289 286 288 286 285 286 287 286 285 289 294 290 292 290 292 293 292 294 293 295 287 288 286 291 293 290 292 293 294 294 294
300 300 300 304 304 305 305 305 305 303 301 295 292 292 293 287 287 285 285 287 287 290 290 292 290 289 293 294 298 299 297 297 297 294 293 291 289 287 283 289 288 284 290 293 293 295 295
299 299 299 303 304 304 304 303 303 302 299 298 294 294 290 284 285 286 288 288 288 289 288 291 293 291 295 299 299 298 296 295 296 296 297 290 289 287 282 285 278 290 294 296 294 296 297
299 298 299 300 303 304 304 303 302 301 299 298 297 295 292 285 287 286 288 289 290 291 289 289 292 295 300 295 286 284 285 285 285 293 293 294 291 283 281 283 288 288 290 291 291 291 298
300 299 298 299 299 300 303 303 302 301 300 300 297 298 294 286 285 287 287 290 286 285 285 286 291 296 297 291 286 283 282 284 282 285 291 294 295 289 284 282 280 289 294 297 297 285 297
300 299 299 298 299 301 302 302 301 300 299 299 296 298 294 286 285 286 286 287 291 289 287 286 288 289 293 286 285 285 282 287 282 282 283 286 288 285 284 285 288 292 291 297 285 290 294
299 299 299 299 299 301 302 302 301 300 299 298 294 298 293 287 285 285 286 285 289 290 286 287 287 288 287 286 286 285 285 285 286 287 286 285 285 285 284 284 281 293 291 289 294 293 293
299 299 299 299 300 301 301 301 300 299 298 298 292 296 296 289 286 289 289 289 287 286 286 289 288 289 291 289 287 286 284 284 285 282 290 285 290 288 289 290 295 294 296 295 295 295 294

GFSGBSN_sfc_thetae_108.txt.gz
Theta_e
315 320 319 319 320 320 320 320 320 320 319 319 318 318 319 320 321 322 323 325 325 326 326 325 326 325 321 310 310 320 329 330 325 321 316 312 311 310 303 305 307 303 305 305 304 303 303
313 314 319 319 319 319 319 319 320 320 319 318 317 317 317 319 321 321 323 325 325 324 325 325 325 324 314 303 321 323 325 325 321 319 316 314 311 314 310 307 305 308 307 303 302 303 303
312 313 310 318 318 318 317 318 319 319 318 318 317 317 318 319 320 321 321 323 324 324 324 325 325 319 311 308 321 322 323 322 322 320 315 315 315 312 312 307 310 308 303 304 300 302 304
310 311 312 313 318 317 317 317 318 318 318 317 316 316 317 318 319 319 321 321 322 322 322 324 324 317 306 319 321 320 319 320 323 322 319 318 316 311 308 308 305 300 300 295 301 302 305
309 310 311 311 317 317 317 317 317 317 317 316 315 316 316 317 317 318 320 320 320 320 321 322 316 311 303 319 313 319 318 316 319 320 320 316 314 307 305 301 296 298 293 294 298 304 302
308 308 309 309 308 316 316 316 316 316 316 315 315 315 316 317 317 317 319 319 319 319 318 317 314 305 307 305 314 317 320 319 313 313 310 308 305 301 302 298 290 293 294 297 295 301 301
308 308 308 309 306 315 315 315 315 316 316 314 314 315 316 316 316 318 316 311 304 302 307 302 303 302 306 312 317 313 317 314 312 308 300 304 298 294 297 301 301 299 297 296 298 303 300
306 307 308 308 307 315 314 314 315 316 316 314 314 315 316 316 316 317 314 304 304 307 297 305 305 306 309 311 304 309 316 306 304 298 302 299 293 299 302 303 301 300 298 296 299 299 299
307 307 308 308 308 313 314 314 314 315 315 314 313 314 315 315 316 313 309 307 313 313 297 299 304 303 305 308 303 304 310 306 302 298 299 295 297 301 300 299 298 299 296 296 296 297 298
306 306 308 308 308 313 313 313 313 313 313 313 313 314 315 315 308 308 305 312 314 314 289 292 297 301 305 306 299 310 311 306 301 297 299 298 301 299 298 296 301 295 302 301 297 295 290
305 307 307 307 312 312 312 312 313 312 312 313 313 314 314 313 304 303 307 312 314 306 275 292 297 308 305 300 301 302 310 306 299 297 299 295 296 296 295 296 301 296 303 300 298 294 292
306 307 308 310 311 311 311 312 312 312 312 312 313 313 312 309 307 307 311 312 307 284 273 287 296 296 297 298 299 303 303 307 306 300 300 298 301 300 299 300 302 300 296 295 293 292 286
308 308 308 310 310 311 311 312 312 312 312 312 312 312 309 308 301 310 311 303 283 277 288 284 290 295 294 292 294 297 297 296 292 289 290 295 296 299 302 297 299 298 294 285 284 284 285
309 309 309 310 310 310 311 311 311 311 312 311 311 310 308 308 310 309 305 289 276 281 283 290 290 293 289 293 292 293 293 292 296 295 291 287 285 296 300 299 293 295 294 284 279 279 281
307 307 308 309 310 310 311 311 310 310 311 310 310 305 304 307 310 308 294 279 277 283 288 288 288 284 288 292 293 292 290 287 296 297 289 289 288 298 299 301 299 294 291 295 285 277 280
306 307 308 308 309 309 309 310 310 310 310 309 301 299 299 307 308 301 287 282 283 289 291 290 283 286 285 289 288 290 290 293 291 299 300 293 285 293 295 299 299 296 297 287 286 277 276
306 306 307 308 309 309 309 309 310 310 309 307 298 291 300 307 305 293 281 283 287 292 291 287 286 286 287 287 290 288 290 294 294 297 300 296 291 286 293 291 290 292 291 291 291 287 281
305 306 307 307 308 307 308 309 310 310 307 302 295 285 300 303 287 287 282 286 290 289 291 288 287 286 286 288 288 290 290 293 299 298 294 297 292 284 288 290 294 295 293 292 286 283 285
305 306 306 306 306 307 308 309 309 307 305 297 287 288 300 298 280 281 287 286 288 286 287 287 285 288 289 286 285 291 292 298 300 299 296 296 288 281 282 288 291 291 293 295 293 288 284
305 305 306 307 305 307 307 308 307 306 306 297 291 282 288 292 290 284 282 283 284 290 288 289 287 289 286 284 287 287 292 297 300 300 299 298 290 287 283 286 290 288 291 293 293 284 285
303 303 305 307 306 304 306 306 306 306 306 298 293 284 284 280 282 286 285 284 283 282 289 290 286 286 284 281 284 285 294 295 298 300 298 295 286 289 289 292 291 290 291 291 291 292 287
302 305 305 305 305 305 305 305 305 305 303 296 288 285 286 284 286 285 286 282 283 284 287 285 285 287 287 284 286 284 293 294 293 293 294 295 285 287 284 291 291 289 292 292 293 293 292
302 303 306 305 305 305 305 305 305 303 303 292 292 294 288 286 283 283 283 285 285 288 289 290 288 287 286 287 291 292 296 298 296 294 292 291 285 284 282 288 288 284 289 291 292 294 294
302 303 306 305 306 306 306 305 305 303 300 296 293 293 288 281 284 283 285 286 287 288 286 290 291 290 293 298 299 298 297 295 297 296 296 291 286 285 281 284 277 286 295 296 293 294 296
300 299 303 304 305 305 305 305 304 302 300 297 296 294 289 282 284 285 286 286 287 290 288 289 292 294 299 296 285 284 284 287 287 294 294 295 289 282 280 280 283 285 287 292 291 291 297
299 298 298 302 303 304 304 303 302 301 300 298 296 297 292 284 283 286 285 288 285 286 285 286 290 293 297 289 284 282 280 283 281 283 292 294 293 286 283 278 276 285 290 294 294 284 295
298 298 297 298 304 304 303 302 302 301 301 298 294 297 292 284 286 287 286 286 291 288 286 285 287 288 293 285 284 283 281 285 281 281 281 284 285 283 282 275 281 286 289 295 281 284 289
298 298 299 300 301 303 302 302 301 301 300 297 293 296 291 286 284 286 287 286 288 289 285 286 286 286 284 283 284 284 282 283 281 285 285 284 283 283 280 273 276 288 288 287 289 286 287
299 300 299 300 301 302 302 301 300 300 299 298 290 296 295 287 286 289 288 289 288 287 287 287 287 286 289 286 285 285 283 279 279 281 288 281 286 284 284 282 289 291 289 289 291 289 290

GFSGBSN_sfc_thetae_111.txt.gz
Theta_e
312 314 316 317 316 321 321 321 321 322 321 320 320 319 319 320 321 321 322 323 325 326 326 326 327 326 320 310 308 319 327 331 325 320 314 310 312 306 301 304 307 304 306 306 305 303 302
311 312 313 315 316 319 320 320 320 321 321 320 319 318 318 319 320 322 322 323 325 325 325 325 325 325 312 302 318 326 326 323 321 317 314 311 309 311 305 303 305 309 308 306 302 301 302
309 309 311 313 315 313 318 319 320 320 320 319 318 318 318 319 319 321 322 322 324 324 325 325 325 320 311 307 318 323 325 322 320 318 313 314 312 308 308 304 307 307 303 305 300 299 300
308 309 310 311 312 313 313 318 319 318 320 319 318 317 317 318 319 320 321 321 323 323 323 323 324 316 306 318 317 318 321 320 322 320 318 316 313 307 305 305 302 300 299 296 304 298 300
308 308 309 311 311 313 312 318 318 318 319 317 317 316 316 318 318 319 319 320 320 322 322 322 314 310 303 319 312 316 317 316 318 319 318 316 311 304 302 297 293 293 288 291 295 299 299
307 307 309 310 309 311 312 313 317 317 318 317 316 316 316 317 318 318 318 320 320 320 317 315 313 303 307 306 312 315 315 318 314 313 310 308 302 297 297 294 288 288 290 292 293 298 298
309 308 309 310 310 310 311 306 317 317 317 317 316 316 316 317 317 318 315 310 304 302 307 299 302 301 304 310 315 312 315 314 310 307 299 304 297 293 295 297 297 295 293 294 296 300 297
309 309 309 308 309 310 310 310 314 317 317 316 315 316 316 317 317 318 312 301 302 303 297 305 305 305 308 309 304 308 315 306 304 298 301 298 294 298 299 300 299 297 293 292 297 298 297
309 308 309 309 309 310 310 310 307 316 316 316 315 315 316 316 316 312 306 304 309 306 295 299 302 303 303 306 300 303 309 305 302 298 298 294 297 300 298 296 296 296 294 294 293 295 295
307 309 309 308 309 309 309 308 306 314 315 314 314 314 315 315 307 306 304 310 310 309 283 290 295 300 304 303 299 307 310 304 300 297 298 297 300 298 296 295 297 292 299 299 295 292 288
306 307 308 308 307 308 309 307 311 314 314 313 313 314 314 313 302 302 306 311 310 302 274 288 295 306 304 297 298 300 309 304 296 296 299 295 297 295 293 295 298 294 301 298 295 291 292
306 306 307 308 307 309 310 306 313 313 313 312 313 313 313 307 305 306 310 311 304 284 273 283 295 294 295 296 296 301 301 304 305 298 297 297 302 299 297 299 299 299 295 294 294 293 286
305 306 307 307 308 309 308 312 313 313 313 312 312 312 309 306 299 308 309 303 285 276 283 285 289 294 292 291 293 295 296 295 291 289 289 294 295 300 299 295 297 297 293 285 285 284 283
305 305 305 307 309 309 311 312 312 312 312 311 312 312 308 304 309 309 304 290 276 274 275 291 291 291 289 291 291 292 291 289 295 292 288 287 285 295 300 295 293 294 294 284 279 280 283
305 306 306 306 311 310 311 312 311 311 311 312 311 305 303 304 309 307 294 282 277 278 286 288 288 287 287 290 290 291 289 288 292 294 287 286 287 297 298 298 297 291 291 295 284 273 278
303 304 304 308 308 310 311 311 311 311 311 310 301 300 299 306 308 301 288 280 277 288 289 287 277 282 280 287 288 288 288 290 293 298 298 291 286 294 296 299 298 295 298 288 287 274 274
307 307 307 307 308 309 310 311 311 311 310 308 300 293 301 308 305 293 282 281 284 290 290 285 283 283 282 286 288 288 288 289 293 294 299 296 291 288 293 293 292 291 292 291 291 285 279
306 307 308 309 310 310 310 310 311 310 308 303 293 285 301 305 288 285 282 284 290 288 289 286 286 285 285 286 283 288 288 290 295 297 294 297 292 285 288 292 294 295 293 293 286 282 283
307 307 308 309 309 310 310 310 310 309 307 295 287 288 300 298 279 278 284 285 286 286 286 285 283 286 287 285 281 286 288 294 296 295 294 296 286 284 284 288 291 292 293 295 291 287 284
306 307 308 308 308 309 309 310 309 308 305 293 286 282 287 291 284 283 279 281 281 287 286 287 285 287 284 283 286 283 284 289 295 296 298 298 288 286 283 287 291 289 291 294 293 285 285
305 306 307 307 308 308 309 309 308 307 305 296 286 281 281 281 277 282 283 282 281 279 286 287 284 285 283 277 283 283 286 288 292 296 296 295 285 288 290 291 292 291 291 291 290 291 286
304 306 306 306 308 308 308 308 305 304 304 293 283 282 284 276 283 282 283 277 281 282 283 282 281 285 285 282 283 279 286 288 288 295 296 296 286 289 287 290 291 289 291 292 292 293 292
305 306 306 306 307 308 307 306 305 304 299 288 288 289 284 284 279 280 280 280 281 284 285 287 286 285 284 286 288 289 291 291 291 287 287 293 287 286 284 288 289 284 289 291 292 294 293
304 306 306 305 306 307 306 305 304 303 299 290 289 289 280 279 280 281 283 284 283 284 283 287 288 286 291 294 293 292 291 290 290 290 290 286 288 285 281 285 279 287 295 295 293 294 296
303 305 305 305 303 303 304 304 303 304 302 295 293 290 282 280 279 280 282 282 284 285 285 287 289 291 296 293 286 282 282 285 287 290 291 295 289 282 281 283 283 284 289 291 290 291 297
304 305 306 305 304 304 304 304 302 303 301 294 292 292 286 280 276 282 280 283 275 278 279 285 287 291 293 289 284 279 279 284 282 286 295 294 294 286 282 280 278 284 289 297 296 286 297
300 303 304 304 305 304 304 302 303 302 300 293 291 292 285 278 283 281 278 281 287 282 279 284 286 287 291 285 281 279 280 284 281 281 283 284 284 284 283 276 279 286 289 298 285 286 291
300 301 301 303 304 303 303 302 303 301 300 292 292 291 286 279 280 286 287 287 288 289 284 286 286 285 285 282 284 284 283 284 283 283 286 284 282 282 279 272 277 287 292 289 290 287 287
300 299 300 303 303 303 302 301 301 300 299 295 287 293 291 283 283 288 288 290 288 288 287 287 285 286 288 285 284 285 283 283 283 281 287 283 286 283 284 282 288 288 288 290 289 288 288

GFSGBSN_sfc_thetae_117.txt.gz
Theta_e
311 312 312 313 313 315 315 317 321 322 322 321 320 321 321 321 322 323 324 324 324 325 326 326 327 326 318 310 307 317 327 331 322 316 312 313 309 305 301 301 302 298 300 307 310 310 302
310 310 311 312 313 314 314 314 317 321 321 321 320 319 320 320 321 322 323 323 323 324 326 326 326 324 314 303 316 323 322 323 318 314 311 312 310 309 303 302 300 303 303 305 306 304 300
309 309 310 311 312 312 313 313 314 318 319 320 319 319 319 319 320 321 321 322 322 324 325 326 326 320 312 307 317 323 324 320 319 316 311 311 310 307 305 300 306 305 300 303 304 305 301
307 308 309 309 311 311 312 313 311 314 316 318 319 318 318 319 320 320 321 321 321 322 323 325 325 316 306 317 319 321 320 317 319 318 316 315 311 305 304 303 301 298 295 291 299 303 303
307 307 307 308 310 310 311 311 311 311 314 315 317 317 318 318 318 319 320 320 320 322 323 322 315 311 303 318 312 318 318 314 316 316 316 316 311 302 301 295 291 291 286 288 295 300 299
307 307 307 308 308 310 310 311 311 311 312 313 312 317 318 318 318 318 319 320 319 319 315 315 314 304 305 305 310 314 315 316 312 311 309 307 304 298 293 292 285 286 286 289 290 296 294
306 307 306 308 309 308 308 310 310 311 312 313 313 313 317 317 317 318 317 309 301 298 306 300 301 299 303 309 313 310 313 311 308 304 299 302 297 294 295 293 293 291 290 290 291 298 293
305 307 306 307 308 306 306 308 309 309 311 312 311 316 317 317 317 318 311 300 300 299 296 302 303 304 306 308 303 307 313 303 300 297 301 298 294 298 298 297 294 292 288 288 293 297 293
306 307 307 307 308 308 308 308 309 310 310 311 311 314 316 316 316 313 305 301 306 306 294 298 301 303 303 305 299 303 308 303 298 297 297 294 296 301 297 294 293 292 291 289 290 294 292
307 307 307 308 308 308 308 308 309 309 309 310 311 308 315 315 310 307 303 306 308 302 282 290 295 300 302 302 296 306 309 303 297 295 296 295 297 298 295 294 295 289 295 295 293 291 285
306 307 306 308 308 308 308 308 308 308 308 310 309 308 315 314 306 301 305 307 304 297 272 289 294 304 302 296 297 298 307 303 295 295 295 291 294 295 293 293 296 292 296 295 294 290 289
309 308 307 307 306 307 307 308 308 308 308 309 310 306 314 310 307 305 309 307 301 283 269 286 293 294 293 294 293 302 303 304 303 295 293 294 301 298 295 296 297 297 293 292 290 289 283
305 306 308 308 307 307 307 308 308 308 308 308 305 306 312 308 301 309 308 300 283 277 281 285 288 292 291 291 291 293 295 294 291 287 288 293 294 299 299 294 295 296 290 284 283 282 279
305 305 305 308 309 308 307 308 308 308 308 309 304 312 310 307 309 309 304 290 278 273 277 289 291 291 288 291 289 289 292 290 294 288 286 286 283 293 298 296 292 293 292 284 277 278 280
305 305 305 307 308 308 309 309 308 308 308 306 304 309 304 306 309 308 295 281 277 278 283 288 289 286 286 288 289 287 286 288 292 291 284 283 284 292 294 297 296 291 289 292 284 272 276
304 304 305 306 307 308 308 308 307 308 307 303 301 301 300 308 309 302 288 282 278 285 289 291 284 287 283 286 284 286 285 289 289 294 292 287 285 290 291 295 296 294 296 287 287 278 274
304 304 305 306 306 306 307 307 308 308 308 304 300 293 303 309 307 295 282 279 282 289 289 288 283 284 286 286 285 285 285 285 291 290 294 292 287 283 293 291 290 292 290 291 290 284 278
304 305 305 306 305 307 307 307 308 307 305 301 294 286 305 306 290 289 284 283 290 286 287 286 285 283 284 287 284 285 283 286 292 293 288 292 288 279 284 293 296 295 292 292 286 281 283
304 304 305 306 307 307 307 308 308 307 307 299 291 294 304 302 283 285 287 285 287 285 286 285 284 286 286 285 282 285 286 290 292 292 289 293 286 280 278 284 291 291 293 293 292 288 284
304 305 304 306 307 307 307 308 308 308 308 299 294 286 291 290 286 286 284 282 282 287 285 285 285 286 284 283 284 285 288 288 291 292 296 296 285 282 278 279 285 286 290 292 291 286 286
304 303 304 305 306 307 307 308 308 308 307 294 288 285 286 282 281 286 283 283 282 280 285 285 284 284 282 281 280 281 286 286 289 294 294 294 285 286 287 287 287 289 287 289 288 290 286
307 303 304 303 306 305 309 308 307 307 301 290 285 286 286 283 286 285 286 282 282 282 282 282 282 283 283 280 283 280 284 284 284 289 290 293 283 287 284 288 288 286 289 290 290 290 289
308 307 305 308 309 308 308 307 306 303 298 287 286 286 287 287 285 283 278 283 282 284 284 285 285 284 282 283 285 287 287 287 287 286 286 286 285 282 276 285 284 282 286 288 289 292 293
305 309 309 308 307 307 306 305 304 302 297 290 286 287 285 278 283 280 282 283 283 283 283 285 286 284 286 289 290 288 287 286 285 285 288 281 279 275 271 276 272 283 290 292 289 291 294
307 308 308 307 307 307 305 305 304 303 301 292 291 287 282 277 280 282 283 282 284 285 283 285 285 287 291 288 282 277 280 280 278 285 285 287 282 272 268 265 279 281 285 287 287 288 294
307 306 306 306 306 305 305 305 304 302 300 292 289 289 285 283 277 282 282 284 278 271 277 282 289 288 289 283 273 272 269 268 268 279 286 286 286 279 266 265 268 282 288 293 293 284 295
307 307 306 305 305 305 304 304 303 302 300 292 288 288 286 280 281 281 280 281 282 279 276 284 285 287 287 282 278 268 267 276 270 276 280 281 281 277 276 271 276 284 288 294 283 286 290
306 306 305 305 304 304 304 304 302 301 299 292 287 289 285 283 283 282 285 282 282 280 276 282 282 284 283 280 273 270 268 274 272 277 280 280 279 278 279 276 274 287 289 288 292 287 287
305 304 304 304 304 304 303 302 302 301 300 295 286 289 290 284 283 284 288 288 289 287 284 282 279 279 284 282 273 270 271 280 277 275 283 279 284 282 283 281 285 287 283 285 285 286 288

GFSGBSN_sfc_thetae_123.txt.gz
Theta_e
312 313 313 313 314 315 316 316 317 318 318 320 320 321 322 323 323 324 325 325 325 325 325 326 327 324 319 310 309 315 326 331 321 315 315 313 309 306 300 301 302 301 303 303 306 307 307
310 310 311 312 312 313 315 314 315 316 317 318 319 319 320 321 322 324 324 324 324 324 324 325 326 324 315 303 317 317 324 321 316 313 313 313 309 309 304 302 300 302 302 302 304 305 305
308 309 310 311 311 312 312 312 313 314 316 317 317 319 319 320 321 322 322 323 323 323 323 324 325 321 312 308 315 320 323 318 316 314 309 313 313 307 306 301 305 304 300 302 302 303 302
308 308 309 309 309 310 311 311 311 312 314 315 316 316 318 319 320 321 321 322 322 322 322 324 324 318 306 319 319 319 317 314 316 316 313 312 312 306 304 303 301 298 297 293 298 302 304
307 307 307 308 308 309 310 309 310 311 312 313 313 315 317 318 318 319 320 321 320 321 322 321 314 311 303 320 313 317 315 312 313 314 314 314 309 303 301 296 292 293 287 289 294 300 301
306 306 306 307 307 308 308 308 309 310 311 312 312 314 315 314 318 318 319 320 319 318 315 314 313 304 307 305 311 316 318 316 312 310 308 307 303 296 294 293 286 287 289 288 290 294 296
305 305 305 306 306 307 307 308 308 308 310 311 311 313 314 314 314 318 317 313 304 301 305 296 299 299 304 308 313 312 316 311 311 308 300 303 297 294 295 293 293 291 290 289 291 296 294
304 304 305 306 306 306 306 307 308 308 309 310 311 312 313 312 313 317 314 305 300 298 293 300 301 304 307 308 302 307 315 305 303 298 300 297 294 296 297 297 296 292 290 288 292 295 294
304 304 305 305 305 306 306 306 307 308 308 309 310 311 311 312 313 311 309 307 306 302 290 294 300 301 303 305 298 303 308 304 300 296 297 294 296 299 296 293 292 292 293 292 292 294 293
303 304 304 305 305 305 306 306 307 308 308 309 309 310 310 311 304 305 306 309 307 303 285 288 294 297 302 301 295 304 308 303 299 294 297 296 299 296 294 293 294 291 295 295 293 292 286
303 303 304 304 305 305 306 306 307 307 307 308 309 309 309 310 303 299 309 307 307 300 273 289 292 302 300 296 296 300 305 301 295 296 296 291 293 294 293 294 295 293 295 294 293 290 289
302 303 304 305 304 306 306 306 307 307 307 307 308 309 309 306 304 303 312 307 301 282 273 286 292 292 292 294 293 302 302 302 301 296 295 293 297 296 294 295 296 295 292 291 290 290 284
304 304 306 306 306 306 306 306 304 307 307 307 307 308 306 305 298 306 309 300 282 277 285 284 286 291 290 290 292 295 295 294 292 286 287 292 292 294 296 292 293 294 291 283 281 281 280
304 306 306 307 307 307 307 307 306 306 307 307 307 307 305 304 305 307 303 289 277 280 280 288 289 290 287 290 290 291 291 290 294 291 287 285 284 292 296 292 289 291 290 282 274 275 278
305 307 307 307 306 307 307 305 306 305 307 307 307 302 300 303 306 306 295 281 279 282 286 287 288 284 286 289 290 288 289 289 293 291 286 284 282 291 294 295 294 289 286 291 283 272 277
306 306 306 306 306 306 307 307 306 306 306 307 299 297 297 304 306 301 287 283 280 284 288 289 282 285 282 286 286 286 288 292 291 294 292 287 282 288 290 294 295 293 294 286 286 277 274
304 305 305 307 307 307 307 307 308 306 306 306 297 290 298 304 303 293 283 281 283 289 291 286 283 283 283 285 285 284 286 285 293 293 294 291 285 287 290 288 286 289 289 289 289 285 277
304 303 305 305 306 307 307 307 307 307 306 303 294 284 299 302 286 285 284 285 289 287 287 285 286 284 284 286 284 285 283 283 291 295 290 292 286 280 285 289 291 291 289 290 284 281 285
303 303 304 304 306 307 307 307 307 307 306 298 288 287 300 299 281 284 285 286 287 286 285 285 284 285 288 286 283 285 285 287 291 293 290 291 285 277 278 281 287 288 290 291 290 287 282
303 303 305 305 305 306 307 307 307 307 306 297 289 284 290 292 289 286 285 285 282 286 285 285 285 289 287 285 284 282 285 287 289 291 296 294 284 279 277 277 283 283 285 290 290 284 283
302 304 305 306 306 307 307 307 307 307 305 295 290 285 286 283 284 288 288 287 283 280 284 286 285 288 286 282 283 283 286 287 289 294 291 289 280 282 283 283 284 284 284 286 286 287 281
304 302 305 305 307 307 307 307 307 305 305 290 286 285 288 286 288 288 288 285 284 281 282 281 284 286 285 284 284 284 285 286 286 288 288 291 283 284 280 284 286 282 284 285 286 287 286
304 306 306 307 307 307 307 307 306 305 302 288 290 289 291 288 287 287 285 285 283 283 284 286 286 285 284 284 288 288 288 287 288 286 285 288 284 282 278 282 282 276 282 283 284 287 287
305 306 307 307 307 307 307 306 306 305 300 294 293 293 288 284 287 284 286 284 283 284 283 284 287 284 284 290 290 288 285 285 285 285 288 286 283 280 275 272 268 280 284 286 285 287 289
305 306 307 306 306 306 306 306 306 304 303 294 291 292 289 285 285 285 285 283 285 287 283 283 284 287 289 286 279 273 276 276 275 282 284 286 281 272 269 262 273 278 280 283 283 282 288
306 306 306 306 306 306 306 306 305 304 304 292 289 289 292 286 280 286 285 286 283 281 282 284 286 287 286 280 273 268 267 268 269 272 283 283 282 275 263 261 262 275 281 284 284 278 286
305 306 306 306 305 306 305 305 305 304 301 292 287 291 290 283 283 286 284 283 284 283 282 284 283 283 284 274 267 266 265 273 268 269 271 275 272 268 260 260 270 279 281 288 275 277 280
304 304 304 304 304 304 303 303 303 302 301 294 289 292 290 283 283 285 285 283 283 284 281 283 280 280 276 271 268 267 264 272 269 272 276 274 270 265 263 261 267 280 281 278 277 278 279
303 303 303 304 304 303 303 302 302 301 301 298 289 291 293 286 284 288 288 289 288 286 287 282 282 281 282 275 272 271 267 273 265 266 279 273 277 273 275 275 280 279 279 274 273 273 274

GFSGBSN_sfc_thetae_129.txt.gz
Theta_e
313 314 315 315 316 316 316 316 316 318 318 319 319 320 321 322 323 324 325 326 326 326 326 326 326 326 324 314 313 323 328 332 329 326 321 319 315 314 309 310 311 309 310 311 313 313 313
313 313 314 314 315 315 316 315 315 316 317 318 318 319 320 321 322 323 324 325 325 324 325 326 326 325 317 306 321 325 325 329 326 324 321 320 316 317 312 310 308 310 310 310 311 310 311
311 312 312 313 314 314 314 314 313 314 315 317 317 317 318 320 321 322 322 323 324 324 324 325 326 323 313 311 322 324 324 324 326 323 319 322 321 315 314 309 312 310 305 308 309 310 308
310 311 311 312 312 312 313 313 314 312 314 315 316 316 317 318 319 321 322 322 323 323 323 324 325 320 306 323 325 321 323 321 324 324 322 322 322 316 312 312 309 305 306 300 307 308 309
309 309 310 310 311 311 312 312 312 312 313 313 314 315 316 316 318 319 320 321 321 322 323 322 316 312 303 321 317 321 323 318 320 321 320 320 318 312 311 305 302 303 297 299 301 307 306
308 308 308 309 309 309 309 310 310 311 312 312 313 314 314 315 316 318 319 320 320 321 319 316 313 304 308 307 315 319 322 320 316 315 313 310 309 304 305 302 293 295 297 298 298 303 304
306 307 307 307 307 308 308 309 309 309 310 311 311 312 313 314 315 317 317 314 307 304 308 300 301 301 304 312 318 315 319 316 315 311 302 305 299 295 301 303 302 300 298 297 300 304 300
305 306 306 306 306 307 307 308 308 309 309 310 311 311 312 313 314 315 314 305 307 308 299 304 303 304 307 312 305 310 318 307 305 299 304 300 294 302 304 303 300 300 297 297 300 302 300
304 305 305 305 305 306 306 307 307 308 308 309 309 311 312 312 313 312 308 307 315 311 297 298 301 302 304 310 303 305 312 308 302 298 300 296 298 303 300 299 297 297 297 296 295 300 301
304 304 304 304 304 305 305 306 306 306 308 308 309 310 310 311 306 305 304 311 314 311 287 290 294 299 304 307 301 310 313 307 298 297 299 298 302 299 298 296 298 293 300 298 296 294 290
303 303 303 304 304 304 304 305 305 306 306 307 308 309 309 310 303 300 304 311 309 303 276 291 293 306 305 300 302 304 313 306 296 296 295 293 295 297 296 297 299 295 301 298 297 294 293
302 302 302 303 303 304 304 304 305 305 306 306 307 308 309 306 306 306 307 309 301 282 277 285 294 295 295 298 300 303 303 306 305 296 297 294 299 298 298 301 301 301 298 297 297 294 285
302 302 302 303 303 303 303 304 304 305 305 306 306 307 306 306 298 308 308 300 281 277 287 283 287 294 293 292 295 298 296 294 293 286 286 291 292 297 297 295 298 298 294 286 284 284 284
301 301 301 302 303 303 304 303 304 305 306 306 306 306 305 304 308 306 302 288 276 284 285 290 291 293 290 293 293 294 293 290 296 294 288 286 283 293 296 292 291 294 293 286 279 281 284
301 301 301 302 302 302 303 303 305 305 305 306 305 303 300 302 306 304 292 280 281 286 289 288 289 287 288 291 292 292 292 292 294 297 289 287 287 297 298 299 297 293 289 296 287 284 284
301 301 301 302 303 303 304 305 305 305 305 305 301 298 297 304 305 299 286 283 284 291 292 292 285 288 285 289 289 290 290 295 294 298 299 293 286 294 297 300 300 296 298 287 288 280 279
299 300 302 302 302 303 304 304 306 306 306 305 297 289 299 304 301 290 281 283 286 292 294 290 288 287 289 289 290 289 290 294 297 297 299 296 292 287 293 291 291 292 291 292 292 288 282
299 302 303 302 303 304 304 306 306 306 306 302 294 283 301 302 284 285 284 286 291 290 292 293 293 292 290 291 290 289 289 292 298 298 293 297 292 285 287 292 296 295 292 292 286 283 286
301 302 303 304 304 304 305 304 305 307 305 297 286 290 301 298 280 284 287 287 291 289 288 290 290 293 293 291 286 290 291 296 298 297 294 295 290 283 284 288 292 290 292 293 292 290 285
303 304 304 305 305 304 305 305 306 307 306 297 288 284 290 292 290 286 285 285 285 293 291 292 292 293 292 290 292 289 291 294 298 298 298 297 290 287 283 286 290 287 291 293 291 285 286
304 304 305 305 305 306 306 306 307 308 305 296 291 286 287 281 283 287 287 288 285 285 291 291 290 291 290 286 288 288 291 291 296 298 297 295 287 289 290 288 291 290 290 291 289 290 286
304 305 304 305 306 306 306 306 307 306 305 294 288 287 290 286 288 287 287 286 286 288 289 287 289 292 292 288 289 287 290 291 291 295 294 296 287 289 285 289 290 288 290 291 291 292 291
306 306 307 307 306 306 306 306 306 306 302 296 299 298 294 288 287 286 285 288 289 291 291 293 293 292 290 292 295 296 296 296 295 293 291 291 287 285 282 287 286 282 286 290 291 293 292
306 305 306 307 306 306 306 306 307 306 302 301 300 297 291 283 287 287 288 291 291 292 289 293 295 291 292 299 298 297 296 296 296 295 296 290 287 285 282 283 277 288 290 291 290 291 294
304 305 306 306 306 306 307 307 307 305 304 302 302 298 294 285 289 289 289 290 291 294 293 292 290 292 298 296 289 285 285 285 284 286 293 294 289 280 280 280 284 286 286 287 287 288 291
306 306 306 307 307 307 307 307 305 304 306 302 301 304 299 288 288 293 289 291 287 285 285 285 290 291 296 292 286 282 280 283 281 282 288 292 292 287 279 278 276 283 287 292 292 282 284
306 306 306 306 305 305 304 304 304 304 304 303 299 306 298 287 291 294 291 289 293 291 287 286 287 289 292 288 285 282 280 279 281 280 280 283 284 282 281 280 283 287 287 290 280 279 280
306 306 306 305 304 303 304 305 304 304 303 301 297 305 296 285 285 288 288 291 293 291 287 287 288 288 286 284 285 281 282 280 282 283 283 282 282 281 280 279 277 281 286 282 276 280 277
305 305 305 305 305 304 304 304 305 303 302 302 294 298 298 289 286 291 290 291 290 290 292 287 288 288 291 285 285 283 281 280 281 279 283 281 285 284 284 283 278 277 274 274 275 274 274

GFSGBSN_sfc_thetae_132.txt.gz
Theta_e
314 314 315 316 316 317 317 318 318 318 319 318 319 320 320 322 322 324 324 324 326 325 325 327 327 326 322 312 312 324 328 333 327 324 320 317 314 312 307 309 310 307 308 311 311 310 309
313 313 314 315 315 316 317 316 316 317 318 318 318 318 319 320 322 323 323 324 324 325 324 325 326 325 316 303 321 324 328 328 325 322 320 319 316 316 311 309 307 309 308 309 309 308 308
311 312 313 313 314 315 315 315 316 316 317 317 317 318 318 319 320 322 322 323 323 324 324 324 326 322 312 310 321 322 325 325 326 323 318 320 320 314 313 308 312 309 303 306 306 307 306
310 311 312 312 313 314 314 314 314 315 315 315 316 316 317 318 319 320 321 322 322 322 324 323 324 317 305 321 323 321 321 320 323 324 322 322 322 316 312 312 308 303 303 297 305 306 306
309 310 311 311 311 312 313 313 313 313 313 313 314 315 316 316 317 318 319 321 321 321 323 322 314 311 301 321 314 320 320 316 318 320 321 321 319 311 310 303 299 300 293 295 299 306 304
308 309 309 310 310 310 311 311 312 312 312 312 313 314 315 315 316 317 318 320 320 320 319 317 313 303 306 304 315 319 321 319 315 314 312 311 308 303 302 300 289 293 294 296 295 301 301
307 308 308 308 308 309 309 310 310 310 311 312 312 313 314 314 315 316 315 312 305 303 308 301 302 301 302 309 315 315 318 315 313 309 300 306 298 294 298 301 300 298 295 294 297 302 298
306 307 307 307 307 308 308 308 309 309 310 311 311 312 312 313 314 315 312 303 304 308 299 305 305 304 306 308 304 310 317 306 305 298 302 299 293 299 302 301 299 298 295 294 298 301 297
305 305 306 306 306 307 307 307 308 308 309 310 310 311 311 312 313 311 306 305 312 311 297 300 303 302 303 306 301 304 311 308 301 298 298 294 297 301 299 298 296 296 295 294 294 298 296
304 305 305 305 305 306 306 306 307 307 308 309 309 309 310 311 305 305 302 309 312 310 289 291 297 301 304 304 299 308 313 306 301 296 298 297 301 299 297 295 296 292 298 297 295 293 286
303 304 304 304 305 305 305 305 306 306 307 307 308 309 309 310 302 299 304 309 310 305 276 293 296 307 304 299 301 302 312 306 297 296 297 292 296 296 295 296 298 293 298 296 296 292 289
303 303 303 304 304 304 304 304 305 306 306 306 307 308 309 306 304 304 307 308 302 284 276 287 294 294 295 298 298 303 304 307 304 297 296 296 299 298 296 299 299 300 297 296 294 291 284
302 302 303 303 303 303 303 304 304 305 305 306 307 307 306 306 298 306 307 301 282 277 287 284 288 293 293 292 294 297 297 295 291 287 287 292 292 296 298 295 297 297 292 284 282 282 282
302 302 302 302 302 302 303 303 304 304 305 305 306 306 305 304 306 306 301 287 276 282 284 290 291 292 289 293 293 294 293 291 295 293 289 286 283 292 296 295 293 293 292 285 279 279 280
300 301 301 302 302 302 302 303 303 304 304 305 306 301 299 302 306 304 293 280 279 284 288 288 290 287 287 291 291 292 291 291 293 295 287 286 286 294 295 296 296 291 288 295 286 281 279
300 300 300 301 301 302 302 303 304 304 304 305 298 296 295 302 303 298 287 283 284 291 291 291 284 289 285 287 288 289 289 293 293 297 297 292 285 293 295 298 297 293 295 285 286 278 275
299 300 301 301 301 302 302 302 303 303 304 305 296 288 297 302 301 287 281 283 285 292 294 289 287 286 288 287 289 288 288 292 295 295 298 295 290 288 293 291 290 291 290 290 289 287 279
299 300 300 300 301 302 302 300 302 304 304 302 293 283 299 301 285 284 283 285 291 288 293 292 292 290 289 290 289 288 288 291 298 297 293 295 291 284 287 291 294 294 291 291 284 281 282
298 300 301 300 301 301 301 303 302 304 305 297 286 289 299 296 279 281 285 286 289 288 288 289 289 292 293 290 286 289 290 295 297 296 293 294 288 281 283 288 291 290 292 292 291 288 283
300 301 301 301 301 301 301 302 304 305 306 297 287 282 289 291 288 284 284 285 285 292 290 291 291 293 291 289 290 288 289 294 296 297 298 297 289 285 281 283 289 288 290 292 290 284 285
301 300 301 301 302 303 303 304 304 305 306 294 287 285 286 280 282 285 286 285 285 285 290 291 288 290 289 284 286 287 290 291 294 297 296 294 284 287 288 288 289 288 289 290 288 288 285
302 303 303 303 304 304 305 305 305 306 301 292 286 285 288 285 285 284 285 284 284 286 288 286 286 289 291 287 288 286 289 290 289 294 293 294 284 287 281 286 288 286 290 290 290 290 290
303 304 304 304 305 305 304 306 306 306 302 291 295 295 290 286 283 282 283 283 285 289 290 291 290 290 289 291 293 294 295 294 293 292 291 289 287 284 279 285 284 276 284 288 290 292 291
304 305 306 306 306 305 305 306 306 306 302 296 295 294 288 282 283 282 284 286 285 289 287 291 293 291 293 298 298 295 294 294 293 293 294 288 286 284 276 283 275 283 289 292 290 291 292
304 306 307 307 306 306 306 306 306 306 304 298 298 295 290 282 285 285 286 285 287 291 289 290 290 294 298 295 288 285 285 285 285 286 291 293 287 280 278 278 279 282 283 286 285 283 283
306 307 307 306 307 307 306 306 306 303 302 301 299 299 294 286 284 288 286 288 286 286 284 286 290 293 294 289 285 277 274 275 281 283 288 291 291 282 278 273 269 279 283 287 290 277 279
306 306 305 306 307 307 306 306 306 304 304 302 298 301 294 286 288 290 287 287 292 287 284 286 286 288 289 285 282 278 272 277 278 277 282 284 284 280 276 272 277 279 283 286 274 276 276
306 306 306 306 306 306 306 306 305 306 305 300 297 300 292 285 285 288 288 290 289 287 285 287 287 286 285 282 279 275 274 275 275 278 280 283 281 279 280 278 273 276 280 280 275 275 274
304 303 304 304 306 306 305 305 305 305 304 302 292 296 295 288 286 291 290 291 290 290 291 286 286 285 288 283 280 277 272 273 274 273 281 276 282 279 280 276 274 273 271 273 273 272 271

GFSGBSN_sfc_thetae_135.txt.gz
Theta_e
315 315 316 316 317 317 318 319 319 319 319 319 320 320 320 321 322 323 324 325 325 325 325 325 326 326 320 310 309 324 331 332 326 322 318 315 311 308 303 305 307 303 305 308 309 308 307
314 313 314 314 315 316 316 317 317 318 318 318 319 319 319 320 321 322 323 324 324 324 325 325 325 325 316 304 319 322 328 325 323 320 317 316 313 313 307 306 303 306 307 306 306 306 306
313 312 313 314 315 315 315 316 316 317 317 317 318 318 318 319 320 321 322 323 324 323 324 325 325 321 310 307 318 319 325 324 324 321 316 318 317 311 309 304 308 306 301 304 304 305 304
313 312 313 312 314 314 314 314 314 315 316 316 317 317 317 318 319 320 320 321 322 322 322 324 324 313 301 317 319 319 320 320 324 323 320 319 319 313 309 310 306 300 300 294 302 305 305
312 312 311 310 312 312 313 314 313 315 315 315 315 316 316 317 317 318 319 319 320 322 322 322 312 306 298 318 312 319 320 316 318 317 317 320 316 308 306 301 296 297 290 292 297 304 302
310 310 310 310 310 311 312 312 313 314 314 314 314 315 315 316 316 317 317 318 319 318 318 318 313 302 303 304 313 315 319 318 314 312 309 308 304 299 300 299 289 292 290 293 293 298 299
309 309 309 309 309 310 310 311 311 312 313 313 313 314 315 315 316 316 314 308 301 300 307 302 303 301 302 305 317 313 317 313 311 306 300 302 295 294 297 298 298 295 292 290 294 300 298
306 307 307 308 308 309 310 310 310 311 311 312 312 313 313 314 315 315 310 302 299 303 296 306 305 303 306 305 302 309 315 306 305 296 299 297 293 297 299 299 298 296 293 292 295 298 296
305 305 306 306 307 308 308 308 309 310 310 310 311 311 312 313 314 310 304 303 309 307 294 299 304 303 303 304 299 303 310 305 300 297 297 293 295 300 298 295 293 294 293 292 292 295 296
304 305 305 306 306 307 307 308 308 309 309 310 310 310 311 313 305 303 301 307 310 307 287 290 298 301 303 304 297 308 312 304 298 294 297 296 299 297 295 294 295 290 297 295 293 290 285
302 302 303 304 305 305 306 306 307 307 308 309 309 309 311 310 299 298 303 308 309 302 274 291 295 307 302 298 298 299 311 303 295 295 294 290 293 294 293 294 296 292 296 294 293 290 286
301 301 302 303 304 305 305 306 306 306 307 307 308 308 309 305 300 301 306 306 302 284 274 287 295 294 294 297 296 300 302 304 302 295 293 292 297 296 294 297 297 297 294 293 291 289 283
301 301 302 303 304 304 305 305 306 306 306 307 307 308 306 304 297 304 306 299 282 277 286 284 288 293 292 292 293 296 295 295 291 287 287 291 290 294 298 294 295 296 292 283 282 281 281
300 300 301 303 303 304 304 304 305 305 306 306 307 307 305 303 304 305 301 288 276 279 278 289 290 291 289 292 292 293 292 291 295 291 285 284 283 291 295 294 291 291 292 285 278 279 279
300 300 300 302 303 303 303 304 304 304 305 306 306 300 299 301 304 303 292 279 279 279 286 287 289 286 287 291 292 291 291 290 294 294 284 284 284 292 295 295 296 290 288 294 286 281 280
299 300 300 302 302 302 302 303 303 304 304 305 297 295 296 303 304 298 286 282 279 288 289 289 281 287 284 287 288 289 289 293 293 296 296 289 281 290 292 296 297 294 295 285 286 278 277
299 300 299 301 301 302 302 302 303 303 303 304 295 288 296 302 300 290 281 282 283 290 292 288 286 283 285 287 288 287 287 291 295 295 296 293 288 288 291 290 289 291 289 289 288 285 280
299 300 300 300 301 301 301 302 303 303 303 301 292 282 296 300 284 284 281 282 288 287 291 290 290 290 287 288 285 287 287 290 297 296 291 294 290 284 287 291 295 294 291 290 284 282 283
299 299 300 300 301 301 301 302 302 302 303 296 285 288 297 295 279 280 284 284 287 287 287 289 288 290 292 289 286 289 289 294 297 295 292 294 287 281 283 287 291 290 291 292 290 288 283
299 299 300 300 300 301 301 301 301 302 303 297 286 282 288 289 287 282 281 282 283 290 287 289 289 290 289 287 290 287 289 292 296 296 298 297 288 285 281 282 288 287 289 290 289 283 284
300 299 301 301 301 302 302 301 301 300 303 294 288 282 286 280 281 282 283 284 282 281 288 289 285 287 288 285 287 287 291 291 295 297 296 295 286 287 287 288 288 288 287 289 287 288 284
299 301 301 301 302 302 302 301 300 301 301 292 284 284 286 277 283 282 284 282 283 286 286 284 283 286 287 285 287 286 289 289 289 294 293 293 282 287 282 286 287 285 288 289 289 289 289
300 300 301 302 302 302 302 302 301 301 299 291 290 292 286 283 281 280 280 283 283 287 289 290 288 287 287 288 292 293 294 293 292 292 291 290 286 283 279 283 283 276 283 288 289 291 291
301 302 302 302 302 302 302 303 303 303 303 294 291 291 283 280 281 281 283 284 285 286 285 289 291 289 293 298 296 295 293 293 293 292 294 289 286 283 280 278 275 282 287 291 290 285 287
303 303 303 303 303 303 304 304 304 304 304 296 295 291 283 275 281 281 282 283 285 287 287 289 291 293 297 293 287 285 285 286 285 287 291 293 288 280 278 274 278 280 283 285 285 282 279
304 304 304 304 304 304 305 305 305 304 302 298 297 295 289 283 279 283 282 284 280 278 284 286 291 293 295 288 285 280 278 280 281 284 289 291 290 284 275 273 269 280 282 285 287 278 277
305 305 305 305 305 305 305 305 305 305 304 299 296 297 291 284 285 285 284 283 286 284 280 286 287 289 290 285 281 278 275 277 278 279 283 285 285 281 276 270 276 280 280 282 275 277 275
306 306 305 306 306 306 306 305 306 306 305 300 296 296 292 285 286 287 287 287 288 284 285 287 288 286 285 281 280 278 275 276 278 280 284 283 280 280 278 275 272 273 277 279 274 273 273
306 307 306 307 307 307 306 306 306 305 305 301 292 294 295 288 286 290 289 289 290 290 290 288 284 283 288 281 277 279 274 273 275 278 280 277 281 278 278 275 272 271 271 272 274 272 270

GFSGBSN_sfc_thetae_138.txt.gz
Theta_e
317 317 317 317 317 318 318 319 319 320 320 320 320 320 321 322 323 322 323 324 324 325 325 325 324 325 320 310 309 324 329 332 325 321 318 314 310 307 302 304 305 302 304 307 307 306 305
316 317 316 315 316 317 317 317 318 319 320 319 319 319 320 321 321 321 322 324 324 324 325 325 324 324 315 301 318 322 326 323 321 319 316 315 311 311 306 305 303 304 305 304 305 305 304
315 316 315 315 316 316 316 316 316 317 318 318 318 319 319 320 320 321 322 323 324 324 324 325 325 319 308 303 317 318 321 321 322 319 315 317 316 310 307 303 307 305 300 302 302 304 302
314 315 315 315 315 315 315 316 315 316 317 317 317 317 318 318 319 320 321 321 322 323 323 324 323 313 299 314 315 314 316 318 323 321 318 318 317 312 310 308 305 299 297 292 300 302 304
314 314 314 314 314 314 314 313 314 315 316 316 316 316 316 318 318 318 320 320 319 322 322 322 313 305 297 315 311 315 317 316 317 317 316 319 314 307 305 300 297 299 289 290 296 303 301
312 313 313 313 313 313 313 313 313 314 315 315 315 315 316 317 317 317 318 318 318 317 317 317 313 301 303 303 310 314 317 317 313 311 309 307 303 300 302 298 288 292 290 291 291 296 297
311 311 312 312 312 311 312 312 312 313 314 314 314 314 315 315 316 317 314 307 299 298 306 302 303 301 301 306 315 310 315 312 310 305 298 300 296 294 298 299 299 293 290 289 291 297 294
308 309 309 309 310 310 310 311 311 312 313 314 313 314 314 315 316 316 310 300 299 301 294 304 306 303 305 304 303 308 314 305 302 296 300 297 294 297 298 298 296 295 292 291 294 297 294
306 306 306 307 308 308 309 310 310 311 312 312 313 313 313 314 314 311 305 303 309 306 294 298 303 303 302 305 298 302 309 304 299 296 297 294 295 299 297 294 293 293 292 290 292 294 294
305 305 305 306 306 307 308 309 310 310 311 312 312 312 312 313 306 304 302 307 310 307 287 288 297 301 304 304 296 304 310 304 300 296 297 295 298 296 294 293 294 289 295 294 292 289 285
303 303 304 304 305 306 307 308 309 309 309 310 311 311 311 311 300 299 303 309 308 302 273 289 294 306 303 297 298 297 310 302 294 294 295 292 295 294 292 293 294 291 295 293 292 289 285
301 302 303 303 301 305 306 306 307 307 309 309 309 310 310 307 301 302 307 308 301 283 274 286 294 294 295 297 295 301 301 303 300 294 291 291 295 295 293 296 296 296 293 291 289 287 283
300 301 301 302 302 303 304 306 306 307 308 308 308 309 307 305 296 305 307 299 282 276 285 284 289 293 292 291 293 296 294 294 291 286 286 290 291 292 295 291 293 293 289 281 282 281 280
300 300 301 301 301 303 304 305 305 306 307 307 307 308 306 303 304 305 300 287 276 280 281 289 290 292 288 290 291 292 292 290 295 289 285 284 283 292 295 292 289 290 289 280 274 276 278
298 300 300 301 301 301 303 304 305 306 307 307 307 302 300 302 304 303 292 278 279 276 284 286 288 285 286 290 289 290 290 290 293 294 285 284 284 290 292 294 294 290 288 293 285 278 281
298 299 300 300 301 301 303 304 305 305 306 306 299 296 296 303 304 298 286 281 278 288 287 288 283 286 283 286 287 288 288 293 292 296 292 288 280 289 291 295 294 292 293 285 287 277 275
298 298 299 300 300 301 303 303 304 305 305 305 296 288 296 303 301 289 281 282 282 288 291 286 284 285 285 285 288 287 288 290 294 295 296 292 286 286 290 290 289 290 289 290 289 285 279
298 299 299 300 299 300 303 303 304 304 304 301 292 282 297 301 285 285 282 281 289 286 289 290 287 285 284 287 286 286 287 289 296 296 291 294 289 283 286 291 292 292 290 290 283 281 284
299 299 299 300 299 298 303 303 303 304 303 295 285 287 298 296 280 280 283 285 286 286 287 286 287 289 288 287 285 288 289 293 296 295 292 294 288 281 283 287 291 289 290 291 291 287 282
299 299 300 301 300 301 301 302 302 303 303 295 285 281 288 290 288 282 278 279 282 288 287 289 286 289 288 285 288 286 288 293 295 296 298 296 288 283 280 282 287 287 290 291 290 283 283
299 299 300 300 301 301 302 302 302 303 303 294 288 283 281 280 282 283 281 283 281 282 287 288 286 287 286 284 285 286 288 289 293 296 296 294 286 286 286 287 286 288 288 290 287 288 284
299 299 300 300 301 301 302 302 302 303 303 290 284 282 285 282 283 282 283 280 282 282 285 284 283 286 287 285 287 283 287 289 289 292 293 295 285 287 283 287 287 286 289 289 289 288 288
299 299 300 300 302 302 302 301 302 302 300 289 288 288 287 284 282 281 279 280 282 286 287 288 287 285 285 287 292 293 292 292 291 291 290 291 286 285 282 285 284 280 284 287 288 290 289
299 300 301 302 302 302 302 302 302 301 300 292 291 287 281 277 281 281 282 283 284 285 283 287 288 286 289 294 295 295 294 293 293 294 295 290 287 284 279 282 276 282 286 290 289 288 289
301 301 302 302 303 303 302 303 302 301 301 294 295 290 281 271 280 281 282 283 286 287 285 287 289 291 295 292 286 285 284 284 285 288 293 294 287 281 279 279 279 280 284 285 286 282 279
301 302 302 302 302 302 302 302 302 301 301 298 294 294 289 281 278 283 281 283 279 276 282 286 288 291 294 288 285 279 278 279 281 284 288 292 291 285 278 271 269 279 281 282 286 278 277
303 303 302 302 302 302 302 302 303 302 301 298 295 296 291 283 285 285 279 282 283 281 281 285 285 288 291 284 281 279 278 279 280 280 283 285 285 282 277 271 275 279 278 280 276 278 275
304 303 303 303 303 303 303 303 304 304 304 299 295 297 291 285 285 287 287 284 284 284 282 286 287 286 285 283 281 278 278 279 278 282 284 284 282 281 277 270 274 272 276 279 274 274 273
305 304 304 304 304 304 304 305 305 304 304 301 292 295 295 288 286 290 289 289 288 287 286 286 286 286 288 282 275 276 273 275 273 278 283 281 281 278 278 275 270 270 270 272 274 272 270

GFSGBSN_sfc_thetae_141.txt.gz
Theta_e
319 319 319 320 319 319 320 320 320 321 320 320 320 320 321 322 322 323 324 324 324 324 325 325 324 325 318 307 307 321 328 330 327 320 317 313 309 306 300 302 303 300 303 305 306 305 305
318 318 318 318 318 319 319 319 319 319 319 319 320 319 320 320 321 321 322 323 324 324 324 325 324 324 311 299 315 321 323 322 319 318 315 314 310 310 304 302 301 303 303 304 304 304 303
316 317 317 317 317 317 317 316 317 317 319 319 319 319 319 319 320 321 321 322 323 323 323 324 324 317 307 303 315 315 319 318 320 318 314 316 314 309 308 304 306 304 298 301 301 303 301
316 316 316 316 316 316 316 317 317 317 317 317 318 317 318 318 319 320 320 321 321 323 323 323 323 310 298 311 313 313 313 313 321 320 318 317 317 314 311 307 304 297 295 290 299 301 303
314 315 316 316 316 315 315 316 316 316 316 316 316 317 317 317 318 318 319 320 319 321 321 321 314 303 296 314 307 312 312 311 317 318 316 319 314 307 308 299 294 294 287 288 294 301 299
313 313 314 315 315 315 315 315 315 315 316 315 315 315 316 316 317 317 318 317 318 316 316 317 312 301 303 301 308 312 314 314 312 311 309 307 303 298 302 299 288 291 288 293 290 296 296
311 312 312 313 314 315 314 313 314 313 314 315 315 315 315 315 316 317 315 307 299 298 304 301 303 300 301 306 312 308 315 312 311 307 299 300 298 293 294 297 296 292 288 287 291 297 294
309 310 311 312 313 313 313 313 313 312 313 314 314 315 315 315 316 316 310 299 299 300 294 303 305 303 304 307 302 306 313 303 302 298 301 298 294 297 300 299 297 296 293 292 295 297 294
307 309 309 310 311 311 311 311 311 311 312 313 313 314 315 315 315 310 305 301 308 305 293 296 302 303 302 304 298 301 306 303 298 294 297 293 295 298 296 293 292 291 290 290 290 293 293
306 307 307 308 308 308 309 310 310 311 312 312 313 313 313 313 306 303 302 306 308 306 286 287 295 300 303 304 295 305 308 303 298 294 295 295 298 295 293 294 294 289 294 293 291 288 284
304 304 306 306 306 307 307 308 309 310 311 311 312 313 313 311 303 299 302 308 308 301 273 287 293 305 302 297 296 297 309 302 294 295 295 288 292 293 291 294 294 292 294 292 291 288 284
302 303 304 305 305 305 306 307 307 309 310 310 310 311 311 307 304 303 308 307 301 283 273 280 294 294 295 296 296 299 300 302 299 294 291 290 297 296 294 296 296 296 293 292 288 288 282
301 302 302 302 304 304 304 306 306 308 309 310 310 310 308 306 298 307 308 300 282 276 282 279 288 293 292 291 293 295 293 293 289 286 286 292 292 294 296 292 292 294 290 282 280 281 279
301 301 301 302 302 303 303 304 305 306 308 309 309 309 306 305 305 306 301 287 276 276 277 285 288 291 288 290 291 293 291 289 294 289 285 284 282 291 295 292 288 290 289 279 273 274 277
300 300 300 301 302 302 303 304 304 305 307 307 308 303 301 303 304 304 292 279 278 276 284 285 289 284 286 289 287 289 289 289 292 294 286 282 284 289 292 294 293 288 287 291 281 278 280
300 300 300 300 300 301 302 303 304 305 306 307 299 297 297 304 304 298 286 282 276 285 286 288 279 284 282 286 285 287 287 291 290 295 294 286 279 288 291 294 294 292 293 285 286 277 275
299 299 300 299 300 301 301 302 303 305 305 306 296 289 297 303 302 290 280 281 277 287 289 286 283 281 283 283 286 285 285 288 293 293 296 292 287 285 290 289 288 290 288 288 286 285 278
298 298 299 299 300 300 301 301 303 304 305 303 293 283 298 301 286 285 283 285 289 285 287 288 286 285 283 285 286 286 286 287 292 295 290 294 289 281 285 287 291 292 288 289 283 279 283
299 299 299 298 299 300 301 301 303 304 305 295 285 287 297 297 281 281 284 285 286 285 284 285 285 286 287 285 280 286 287 291 293 293 291 293 287 278 283 287 291 289 290 290 289 286 281
299 299 299 299 299 300 300 301 303 305 304 294 286 281 289 290 288 283 281 280 282 286 286 287 286 288 285 283 287 284 286 290 294 294 297 295 288 284 279 280 287 286 288 289 289 283 282
299 299 299 299 300 300 301 301 304 304 303 294 287 282 282 281 282 284 284 279 281 281 285 288 284 286 284 279 281 282 286 289 291 295 295 293 285 286 287 285 286 286 286 288 287 288 284
299 299 299 299 300 300 300 300 303 304 302 291 284 283 284 276 285 283 283 282 281 282 283 282 284 285 286 283 284 281 285 286 288 291 292 292 286 287 284 286 286 284 287 288 289 289 289
299 300 299 299 300 300 302 303 303 303 299 289 290 289 286 285 283 282 281 280 282 284 287 286 285 284 285 287 289 290 292 291 289 288 286 286 285 284 281 285 285 281 285 288 289 291 290
299 300 299 300 301 301 301 302 303 303 297 290 288 287 283 279 281 281 282 283 282 284 283 286 287 285 288 292 294 293 293 293 292 290 292 287 285 285 280 283 276 285 289 291 289 291 292
300 300 300 300 301 301 302 302 302 303 299 292 291 287 281 276 280 281 282 281 284 286 285 286 287 289 292 291 285 282 282 284 285 286 288 292 288 283 280 279 280 280 283 285 287 286 286
301 300 300 301 302 302 302 302 303 303 301 292 293 293 288 281 278 284 282 283 278 278 283 284 289 292 291 286 283 276 271 278 280 283 289 291 292 285 277 275 275 280 281 282 289 280 279
301 301 302 302 302 302 302 302 303 302 302 295 291 295 290 281 283 285 281 282 284 281 281 285 286 287 291 284 271 272 274 280 279 280 282 284 284 282 281 277 280 281 278 280 279 279 277
302 302 302 302 302 302 302 302 302 303 302 298 292 295 293 283 284 285 285 282 283 282 281 284 285 286 285 282 277 276 278 279 278 282 284 283 282 282 277 277 276 271 277 280 276 274 274
302 302 302 302 302 302 302 302 303 302 301 300 292 296 296 288 286 289 287 289 288 287 286 287 286 287 288 284 279 277 273 279 277 279 284 282 283 281 281 278 270 270 271 272 274 272 271

GFSGBSN_sfc_thetae_144.txt.gz
Theta_e
320 320 321 321 321 321 321 320 320 321 321 321 321 321 322 323 324 324 324 323 324 324 325 324 323 324 316 305 306 319 327 328 325 320 316 312 307 304 299 300 302 299 301 303 304 304 303
319 319 319 320 320 320 319 320 320 320 320 320 320 320 320 321 321 322 323 323 323 323 323 324 324 323 310 297 313 316 321 320 319 317 315 313 309 309 302 301 300 302 302 303 303 302 302
318 318 318 319 319 319 319 318 319 320 320 320 319 319 319 319 320 320 321 321 322 322 323 323 324 316 305 301 314 312 317 315 318 317 313 314 313 308 306 300 305 303 297 300 301 301 301
317 317 317 318 318 318 318 318 318 319 319 318 318 318 318 318 319 319 319 320 320 321 321 322 322 308 297 310 312 311 311 310 317 319 316 316 315 311 307 306 303 295 294 289 297 300 301
315 316 316 317 318 318 317 317 317 317 317 316 317 317 317 317 318 318 319 319 319 320 320 320 314 307 298 313 305 309 310 308 316 316 316 318 313 306 304 298 293 292 286 288 293 299 299
314 314 315 316 316 316 316 316 317 317 316 316 315 316 317 317 316 317 318 318 318 316 314 315 312 301 303 299 306 311 310 313 311 310 308 307 303 298 298 296 287 290 291 289 289 295 295
312 313 313 314 315 316 316 315 316 316 316 316 315 315 316 316 316 317 314 307 300 299 303 299 302 300 300 305 311 307 313 311 312 305 297 300 298 292 295 298 296 295 290 288 290 296 294
310 311 312 313 313 315 315 315 315 315 315 315 315 315 316 316 316 316 310 300 299 301 294 302 303 304 303 306 300 304 311 302 303 297 298 297 293 296 297 296 295 295 293 292 294 297 293
307 308 309 311 312 313 314 314 314 314 314 314 314 315 315 316 315 311 305 301 307 306 293 296 301 303 302 303 298 299 306 301 298 296 297 291 292 299 296 292 293 293 291 291 290 292 292
306 307 308 310 310 312 313 313 313 313 313 313 313 314 314 314 307 305 303 307 308 305 286 287 294 299 303 302 295 304 306 301 295 294 297 295 298 295 292 293 294 289 294 293 290 288 284
304 304 306 308 309 310 311 311 312 312 312 312 312 313 313 313 303 301 304 308 306 302 270 287 292 303 302 297 296 298 307 301 293 293 294 288 291 292 291 292 295 292 295 292 291 287 284
302 303 303 305 307 308 308 309 309 310 311 311 312 312 312 308 303 303 308 307 301 284 272 279 293 294 294 296 295 298 300 301 298 294 291 289 294 294 293 295 296 295 294 291 288 287 282
302 302 303 304 305 306 306 307 308 308 309 310 311 312 308 306 299 307 308 300 283 276 280 280 287 293 292 291 293 294 292 293 290 286 286 291 290 292 294 291 293 294 290 282 280 281 278
302 302 303 303 304 303 306 306 307 308 308 310 310 310 308 305 306 307 301 288 276 277 275 285 288 290 287 289 291 292 291 288 294 288 284 284 282 292 296 292 291 292 290 283 274 274 276
301 302 302 302 302 302 303 304 305 306 307 309 309 303 301 304 307 305 292 279 279 277 283 285 287 284 286 288 287 290 289 288 291 293 284 281 283 288 291 293 293 287 286 290 281 274 276
301 300 301 302 301 302 302 303 304 306 307 307 301 298 298 304 306 299 287 282 278 283 286 287 278 283 279 286 285 287 287 290 290 294 294 286 280 286 290 293 293 290 292 283 284 274 271
300 300 301 301 301 302 302 302 304 305 306 307 298 291 299 304 302 290 281 282 279 285 288 285 282 281 282 283 286 285 284 287 292 292 295 291 286 282 289 289 287 289 287 288 286 284 276
300 300 300 300 300 301 302 302 303 304 305 303 294 283 297 302 286 285 283 283 287 285 287 287 285 284 283 284 283 285 283 285 290 293 289 293 289 282 284 287 290 291 288 288 282 280 282
299 299 299 299 300 300 301 302 302 303 304 296 285 286 299 298 281 281 285 284 285 284 284 285 284 286 286 284 281 285 285 290 291 292 290 292 286 280 280 286 290 287 289 290 289 284 281
299 300 299 299 299 300 300 301 302 302 304 293 285 281 289 291 289 284 282 283 282 285 284 286 285 287 284 283 285 281 285 289 291 292 296 294 286 283 278 280 285 285 286 289 287 283 282
299 299 299 299 299 300 299 300 301 302 303 293 285 283 285 281 283 283 284 281 281 282 284 286 283 284 282 276 280 281 286 287 290 293 293 291 284 285 286 284 285 285 286 287 286 287 283
300 299 299 299 299 299 299 300 301 302 303 291 284 284 284 283 286 283 284 280 279 283 282 280 280 283 284 280 282 280 284 285 286 290 290 291 284 286 284 286 286 283 285 287 288 288 288
300 300 299 299 299 299 300 300 300 302 301 288 290 290 285 286 283 282 280 281 282 284 285 286 285 283 282 285 287 288 289 288 288 287 288 288 285 282 279 283 284 280 285 285 287 289 289
300 300 300 300 299 300 300 301 301 302 298 291 288 289 281 279 282 282 282 283 282 284 282 285 285 283 286 291 292 292 290 290 289 289 289 284 284 284 279 279 273 284 286 290 287 289 291
300 300 300 300 297 294 298 300 300 302 299 292 289 287 281 277 279 282 282 282 283 285 285 286 287 287 291 289 281 278 280 279 280 286 287 290 287 280 277 277 281 282 283 284 285 286 291
300 300 300 299 300 301 301 300 300 299 300 294 292 290 285 279 277 283 281 282 277 276 281 281 285 290 290 285 282 274 268 271 271 278 286 288 288 282 281 276 273 282 284 282 290 283 286
300 300 299 300 301 301 302 302 302 301 300 292 289 292 287 278 279 283 278 280 283 280 276 280 283 285 290 284 279 269 271 276 270 272 275 281 281 278 279 278 277 279 278 280 281 281 278
301 300 301 301 301 301 302 302 302 302 301 293 289 293 288 277 282 283 285 282 282 281 278 282 285 285 285 280 280 274 268 276 274 278 280 280 279 279 281 278 276 273 278 282 278 274 276
301 302 302 302 301 302 301 302 302 302 302 298 288 294 294 287 286 287 286 287 286 286 285 287 283 285 286 282 282 273 272 277 274 275 283 280 284 282 281 282 272 270 271 273 275 274 272

GFSGBSN_sfc_thetae_147.txt.gz
Theta_e
321 321 321 322 321 322 322 323 322 323 322 321 321 321 322 323 323 324 324 324 324 324 324 324 323 323 315 305 304 319 326 328 324 319 315 311 307 305 299 302 303 301 302 304 305 304 303
319 321 320 321 321 321 321 322 321 321 321 321 320 320 320 322 323 323 323 323 323 323 323 324 323 323 308 294 313 313 318 319 319 316 314 312 309 309 304 302 301 303 303 303 304 303 303
318 319 320 320 320 319 320 320 321 320 320 319 319 319 319 321 321 322 322 322 322 322 322 323 323 316 304 298 313 311 314 314 317 317 313 315 313 308 307 302 306 303 299 300 301 302 302
317 318 319 319 319 319 319 319 320 320 319 318 318 318 318 319 320 320 320 320 320 321 321 322 322 308 298 309 311 309 310 310 316 319 317 316 315 311 308 306 303 298 296 291 297 300 301
316 317 317 318 319 318 319 319 319 319 318 318 317 317 318 318 318 318 318 318 319 320 320 321 313 307 298 313 305 308 309 308 315 316 316 318 314 306 305 298 294 295 287 290 294 299 299
314 315 316 316 318 318 318 318 318 318 317 317 316 317 317 317 317 317 318 318 318 316 315 314 312 302 303 298 305 309 309 313 312 311 310 307 304 298 298 295 284 288 289 291 292 295 295
313 313 315 315 316 316 316 316 317 317 316 315 315 316 316 317 317 317 314 307 300 299 303 298 301 299 300 305 309 307 309 308 311 306 298 302 296 292 295 296 295 292 290 289 291 296 294
310 312 313 314 315 315 315 315 316 316 316 315 315 315 316 316 316 316 309 300 299 300 294 302 303 303 304 305 299 304 310 300 302 296 298 298 292 295 297 296 295 294 291 290 294 297 294
305 311 312 313 313 314 314 315 315 315 316 315 314 315 315 315 315 311 304 301 306 304 292 295 300 300 302 303 296 298 304 301 297 295 296 290 293 297 296 293 291 291 290 289 289 293 293
304 308 309 310 311 312 313 314 314 314 314 314 315 314 314 314 308 307 303 307 308 304 285 287 293 298 302 301 295 303 305 300 299 293 295 295 296 294 294 293 293 288 294 292 292 291 285
304 305 306 307 309 311 312 313 313 313 313 313 314 314 314 313 304 302 305 308 306 301 271 287 292 302 301 296 296 300 305 300 294 293 293 287 291 292 290 293 295 292 296 292 292 288 287
303 303 304 305 307 309 310 312 313 313 313 312 313 313 312 305 303 305 308 306 301 282 271 278 293 294 294 296 295 301 298 300 298 294 291 289 294 294 293 295 296 294 292 291 289 289 282
303 304 304 303 305 307 309 311 312 312 312 311 311 311 309 306 299 308 308 300 283 276 279 279 286 292 291 291 293 295 294 292 288 285 285 290 290 292 294 290 292 295 290 280 279 280 278
302 303 303 304 304 304 306 308 309 310 310 310 309 310 308 305 307 308 303 288 277 275 274 284 288 290 287 290 291 292 291 289 291 287 283 282 279 291 295 292 290 291 289 280 273 274 277
301 302 303 303 304 304 305 305 307 308 308 308 308 303 303 303 308 306 294 281 279 277 283 285 287 285 286 288 287 290 288 288 292 290 284 281 282 289 292 293 294 289 287 290 283 275 278
301 301 302 303 303 303 303 305 306 306 307 307 301 298 299 305 307 300 287 283 279 284 287 286 278 282 278 284 284 286 286 289 289 294 292 286 279 286 289 293 292 290 292 284 284 272 270
301 301 301 302 303 303 303 304 304 305 306 306 298 290 298 306 304 292 282 282 280 285 288 285 282 281 281 284 284 284 283 286 290 291 294 290 287 283 289 288 287 289 287 287 285 278 275
300 300 301 301 302 302 302 302 303 305 306 303 294 283 300 303 287 285 284 285 287 284 286 286 285 284 282 284 282 283 283 285 290 292 288 292 288 282 283 287 290 291 287 288 281 280 282
300 300 300 301 301 302 303 302 302 304 305 297 285 287 298 297 280 282 284 285 285 284 285 285 284 285 285 284 280 284 285 289 290 291 289 291 285 280 279 284 289 287 289 290 288 284 281
300 300 300 301 301 301 302 302 303 303 305 294 286 281 289 292 290 285 283 283 282 286 285 286 285 286 285 283 284 282 283 288 291 291 296 294 285 281 277 279 284 284 286 288 287 281 282
300 300 300 300 300 301 301 302 302 303 304 293 285 283 285 282 284 285 284 281 281 278 284 286 285 285 284 277 281 281 285 286 289 292 292 290 283 284 285 285 284 283 284 286 285 286 282
300 300 300 300 299 300 300 301 302 302 303 292 283 283 285 282 287 284 285 282 281 283 282 280 280 284 284 281 283 281 285 285 285 288 288 290 282 284 281 285 285 283 285 285 286 287 287
300 300 300 299 299 300 300 300 301 301 301 286 289 290 285 287 284 283 282 282 282 284 284 285 284 283 282 284 286 287 288 287 286 286 285 286 285 282 278 282 283 279 284 285 286 288 288
300 300 300 299 299 299 299 300 300 301 299 292 290 288 284 281 283 283 283 284 283 285 282 283 285 284 285 290 289 288 287 287 286 286 287 282 282 281 278 277 272 281 284 288 286 288 290
300 300 300 300 300 300 300 299 300 301 300 293 292 289 284 280 283 283 282 282 284 285 284 284 285 287 289 287 281 277 277 274 278 285 285 287 283 278 276 275 278 281 283 284 283 284 289
300 300 300 299 299 299 300 300 300 301 301 295 293 291 286 280 281 284 281 283 278 275 279 281 287 288 288 282 273 269 269 269 267 271 284 286 287 281 279 274 272 279 281 284 289 281 290
300 300 299 298 298 298 299 301 300 301 301 295 292 291 285 277 279 283 278 281 282 279 275 277 284 285 286 283 276 267 268 274 269 271 276 279 280 278 277 276 276 284 280 283 279 281 281
300 300 300 301 301 299 298 300 301 300 300 294 291 292 287 277 281 283 284 282 281 279 275 279 280 281 283 278 274 274 265 274 272 274 274 277 277 277 278 275 273 278 278 281 281 276 277
300 300 301 301 302 300 299 300 300 301 300 295 289 291 291 285 281 286 285 286 286 286 282 284 280 280 284 274 275 273 277 277 267 273 281 274 281 278 280 279 276 272 271 273 274 276 274

GFSGBSN_sfc_thetae_150.txt.gz
Theta_e
321 321 321 321 322 323 323 322 323 323 323 323 322 322 322 323 324 324 325 324 324 324 324 324 322 323 319 305 304 320 324 327 327 322 316 314 309 309 301 306 308 305 307 308 310 309 309
319 320 321 321 321 322 321 321 322 323 322 322 321 321 321 322 322 323 324 324 324 324 324 324 323 324 312 294 315 317 320 322 322 320 318 317 311 312 308 307 304 308 308 308 309 308 308
317 318 320 321 321 321 321 321 322 322 322 321 320 320 320 320 321 322 322 323 323 323 323 323 323 318 308 301 317 316 316 317 321 321 317 318 318 312 311 307 310 308 301 304 305 306 304
314 317 320 321 320 320 320 320 320 320 321 320 319 319 319 320 321 322 321 321 321 321 322 322 321 312 302 312 315 311 313 314 320 322 320 321 320 315 310 311 307 302 301 293 302 304 305
312 314 315 318 319 320 319 319 319 319 319 318 318 318 318 319 319 320 320 319 319 320 320 322 315 308 301 314 307 311 312 311 318 319 320 320 318 310 310 302 296 300 291 293 296 304 304
309 310 311 316 318 318 318 318 319 318 317 317 317 317 318 318 318 318 318 318 318 318 317 316 312 303 306 301 307 311 312 319 314 314 312 312 310 302 302 298 286 291 292 294 294 299 300
305 307 310 316 318 318 318 317 317 318 317 317 317 317 317 318 318 318 316 312 304 302 307 302 303 302 301 307 311 309 310 309 314 309 300 306 298 294 296 299 297 296 295 293 296 300 298
304 305 307 309 316 316 317 317 317 318 317 317 316 316 317 317 317 317 314 304 303 305 297 304 305 306 306 308 300 305 311 303 302 297 302 300 294 299 300 300 298 297 294 294 298 299 298
303 303 306 307 314 315 315 316 316 317 316 315 315 315 316 316 316 312 308 305 309 308 296 297 303 303 305 306 299 301 305 304 299 298 298 295 296 300 298 297 295 296 294 294 294 297 298
304 301 305 305 312 314 314 315 315 315 314 314 314 314 314 315 308 308 305 307 310 309 289 290 296 299 303 304 298 306 308 303 301 296 298 296 299 297 296 294 296 291 298 297 295 291 287
304 300 303 303 312 313 314 314 313 314 313 313 313 313 314 314 306 303 307 310 309 305 276 292 294 306 304 299 300 301 308 302 297 297 297 293 295 295 294 295 298 294 299 296 295 293 291
303 302 303 301 304 312 312 313 313 313 313 312 312 312 313 309 309 307 309 308 305 284 275 285 294 294 295 297 297 302 301 304 303 298 297 295 299 298 297 298 299 298 296 295 294 291 282
302 304 303 301 300 308 310 311 312 313 313 312 312 311 310 309 303 310 308 301 284 279 286 283 287 292 292 291 294 297 295 294 291 287 288 293 293 297 298 295 297 296 291 284 281 281 281
302 304 304 304 304 306 309 310 311 312 312 312 311 311 309 308 310 309 303 288 278 285 282 288 290 291 287 292 292 294 293 290 294 291 288 285 283 293 297 294 292 293 291 284 277 278 283
302 303 304 304 305 305 307 310 311 311 311 311 311 307 304 306 310 308 295 282 283 283 288 288 289 286 286 290 291 291 291 290 293 294 286 285 284 294 296 296 295 292 288 294 286 282 282
302 302 303 304 304 304 306 307 307 307 311 309 302 301 300 307 310 303 288 285 286 288 291 291 285 287 284 286 287 288 289 293 292 295 295 289 284 290 294 296 296 294 296 286 286 278 277
301 302 302 303 304 304 306 306 306 307 306 307 298 289 299 308 306 294 284 286 286 287 292 289 287 285 287 286 287 287 288 291 294 294 296 292 289 287 291 291 290 289 289 290 289 286 280
301 301 302 302 303 304 304 305 306 307 307 302 292 284 300 306 287 285 285 285 289 287 289 289 290 288 287 288 287 287 287 289 295 296 291 294 290 284 286 293 296 294 291 291 284 281 285
302 301 301 302 303 303 304 305 306 305 305 295 285 288 299 300 283 284 285 286 288 287 288 288 287 289 289 288 284 288 289 293 294 294 291 293 287 281 283 287 291 289 291 292 291 289 283
302 301 301 302 302 303 303 303 304 306 305 295 286 283 290 293 288 286 285 285 284 288 288 289 288 290 288 287 288 287 287 291 293 295 296 295 288 285 280 283 288 285 288 291 289 284 284
302 301 301 301 302 302 303 302 304 305 303 295 287 284 285 282 284 286 287 286 283 283 288 290 287 289 288 283 285 285 289 289 291 294 294 292 284 286 287 288 288 287 287 288 287 288 284
301 301 301 301 301 302 302 303 302 304 302 292 285 285 287 286 288 286 286 285 284 284 286 286 286 287 288 285 287 284 288 288 288 291 291 292 285 286 283 287 287 284 287 288 288 288 288
301 301 301 301 301 301 302 302 302 303 299 286 289 291 291 287 286 284 284 284 285 288 287 288 288 287 286 288 291 292 292 292 291 289 288 288 286 283 279 284 284 280 284 286 287 290 289
301 301 301 301 300 301 301 301 302 301 297 294 293 291 288 283 285 284 286 287 286 287 285 287 289 287 290 293 293 292 290 289 289 289 290 285 285 284 279 280 272 284 289 289 288 290 292
300 300 300 300 300 301 300 300 301 302 300 295 293 292 288 283 286 286 286 286 288 289 286 287 288 291 294 291 285 281 280 280 282 287 287 287 284 280 276 276 280 282 286 286 286 286 292
300 300 300 300 300 300 300 300 300 301 301 298 295 294 291 286 283 286 286 287 284 285 284 284 290 292 292 287 282 276 273 276 276 278 286 287 287 281 279 274 271 282 288 290 290 281 291
300 300 300 300 300 300 300 300 300 301 301 298 294 295 290 285 285 286 285 285 287 285 284 282 286 287 291 284 279 277 276 279 276 275 277 280 281 277 278 276 280 287 289 289 279 281 289
300 298 297 298 298 299 299 300 300 301 301 299 294 295 290 285 285 287 287 285 285 287 283 283 286 285 285 281 281 279 278 278 278 281 279 279 278 278 279 275 273 286 283 283 288 284 282
301 300 300 301 299 300 300 300 301 301 300 298 292 295 294 288 286 289 289 290 289 290 287 287 287 285 288 283 282 282 279 278 279 276 283 278 283 281 282 282 286 284 287 281 279 282 280